                ,  0.671,  0.819,  0.966,  1.114,  1.262,  1.410,  1.558,  1.705,  1.853,  2.001,  2.149,  2.297,  2.445,  2.592,  2.740,  2.888,  3.036,  3.184,  3.331,  3.479,  3.627,  3.775,  3.923,  4.070,  4.218,  4.366,  4.514,  4.662,  4.809,  4.957,  5.105,  5.253,  5.401,  5.549,  5.696,  5.844,  5.992,  6.140,  6.288,  6.435,  6.583,  6.731,  6.879,  7.027,  7.174,  7.322,  7.470,  7.618,  7.766,  7.914,  8.061,  8.209,  8.357,  8.505,  8.653,  8.800,  8.948,  9.096,  9.244,  9.392,  9.539,  9.687,  9.835
2000/11/02 00:00,   -0.9,  999.0,    4.9,  999.0,   11.0,   12.9,   14.3,   15.0,   16.5,   17.5,   17.5,   18.2,   19.2,   19.2,  999.0,   20.2,   19.9,   19.4,   20.8,  999.0,  999.0,  999.0,   21.8,  999.0,  999.0,  999.0,  999.0,  999.0,  999.0,  999.0,  999.0,  999.0,  999.0,  999.0,  999.0,  999.0,  999.0,  999.0,  999.0,  999.0,  999.0,  999.0,  999.0,  999.0,  999.0,  999.0,   23.4,  999.0,   23.4,  999.0,  999.0,  999.0,  999.0,  999.0,  999.0,  999.0,  999.0,  999.0,  999.0,  999.0,  999.0,  999.0,  999.0
2000/11/02 00:10,   -1.7,    1.7,    6.5,    9.7,   10.9,   12.0,   13.8,   15.3,   16.5,   16.9,   17.1,   17.6,   18.8,   19.7,   19.3,   20.2,   20.0,   20.5,   21.7,   23.1,  999.0,  999.0,  999.0,  999.0,  999.0,  999.0,  999.0,  999.0,  999.0,  999.0,  999.0,  999.0,  999.0,  999.0,  999.0,  999.0,  999.0,  999.0,  999.0,  999.0,  999.0,  999.0,  999.0,  999.0,  999.0,  999.0,  999.0,  999.0,  999.0,  999.0,  999.0,  999.0,  999.0,  999.0,  999.0,   21.7,   20.7,   20.1,   20.2,   21.7,  999.0,  999.0,  999.0
2000/11/02 00:20,   -0.4,    2.6,    5.5,    9.0,   10.1,   11.8,   12.8,   14.4,   15.6,   16.1,   16.9,   18.0,   18.8,   18.6,   19.4,   20.1,   19.5,   19.6,  999.0,   20.6,  999.0,  999.0,  999.0,  999.0,  999.0,  999.0,  999.0,  999.0,  999.0,  999.0,  999.0,  999.0,  999.0,  999.0,  999.0,  999.0,  999.0,  999.0,  999.0,  999.0,  999.0,  999.0,  999.0,  999.0,  999.0,  999.0,   26.6,   26.0,   26.8,   27.5,   28.1,   28.0,   28.1,   27.2,   26.0,   25.1,   23.9,   22.8,   22.0,   22.4,  999.0,  999.0,  999.0
2000/11/02 00:30,   -1.9,    2.2,  999.0,    7.6,    8.9,   10.4,   12.2,   13.8,   15.3,   16.3,   17.0,   17.8,   17.8,   16.8,   17.4,   18.3,   18.2,   18.5,  999.0,  999.0,  999.0,  999.0,  999.0,  999.0,  999.0,  999.0,  999.0,  999.0,  999.0,  999.0,  999.0,  999.0,  999.0,  999.0,  999.0,  999.0,  999.0,  999.0,  999.0,  999.0,  999.0,  999.0,  999.0,  999.0,  999.0,   30.6,   28.8,  999.0,   28.3,   26.1,  999.0,   27.2,   25.2,   27.7,  999.0,  999.0,   25.6,  999.0,  999.0,  999.0,  999.0,  999.0,  999.0
2000/11/02 00:40,   -0.1,    1.5,    4.0,    6.5,    8.2,    9.1,   10.7,   13.0,   14.3,   16.1,   16.8,   16.9,   16.7,   16.7,   17.2,   18.2,   17.7,   17.5,   20.8,  999.0,  999.0,  999.0,  999.0,  999.0,  999.0,  999.0,  999.0,  999.0,  999.0,  999.0,  999.0,   25.9,   26.5,   26.7,   25.8,  999.0,  999.0,  999.0,  999.0,  999.0,  999.0,  999.0,  999.0,  999.0,  999.0,  999.0,  999.0,  999.0,   29.2,   28.1,   27.8,   27.2,   25.6,   24.3,   23.5,   23.4,   23.2,  999.0,  999.0,  999.0,  999.0,  999.0,  999.0
2000/11/02 00:50,  999.0,    1.9,    4.6,    6.3,    7.3,  999.0,    9.2,   12.1,   13.9,   15.1,   15.8,   16.1,   15.9,   16.1,   16.1,   16.6,   16.3,   16.1,   18.2,   15.7,  999.0,  999.0,  999.0,   18.3,  999.0,  999.0,  999.0,  999.0,  999.0,  999.0,  999.0,  999.0,   24.6,  999.0,  999.0,  999.0,  999.0,  999.0,  999.0,  999.0,  999.0,  999.0,  999.0,  999.0,  999.0,  999.0,  999.0,  999.0,   28.0,   27.2,   26.5,   25.0,   24.1,   23.9,   23.1,   22.7,   23.3,   23.0,   23.6,  999.0,  999.0,   23.9,  999.0
2000/11/02 01:00,    0.8,    3.6,    4.1,  999.0,    6.8,    8.7,   10.5,   11.5,   13.0,   14.4,   14.9,   15.4,   15.4,   14.9,   15.2,   15.2,   15.2,   16.3,   15.9,   17.3,  999.0,  999.0,  999.0,   20.3,  999.0,  999.0,  999.0,  999.0,  999.0,  999.0,  999.0,  999.0,   24.3,   25.6,   26.9,  999.0,  999.0,  999.0,  999.0,  999.0,  999.0,  999.0,  999.0,  999.0,  999.0,  999.0,  999.0,  999.0,  999.0,  999.0,   25.7,   26.3,   26.1,   25.1,   25.0,   25.1,   23.9,   23.3,   23.6,   24.2,   24.4,   23.9,  999.0
2000/11/02 01:10,  999.0,  999.0,    5.4,    6.8,   -1.9,  999.0,    9.8,   13.1,   15.9,   16.0,   14.3,   14.4,   14.5,   14.4,   16.0,   16.9,   17.0,   17.1,  999.0,  999.0,  999.0,  999.0,  999.0,  999.0,  999.0,  999.0,  999.0,  999.0,  999.0,   23.0,   23.6,   23.7,   24.7,   25.0,   24.7,   25.4,   26.3,   26.6,   27.2,   27.7,   27.6,   27.2,   27.6,   27.8,   27.3,  999.0,   29.0,   28.9,   28.1,   27.8,   27.5,  999.0,  999.0,  999.0,  999.0,  999.0,  999.0,  999.0,  999.0,  999.0,  999.0,  999.0,  999.0
2000/11/02 01:20,   -1.1,    2.5,    5.7,    6.7,    7.3,    7.8,    8.8,   10.6,    7.4,   13.7,   14.4,   14.6,   14.9,   16.2,   17.7,   18.3,   18.5,   18.8,   19.6,   19.9,   20.1,   21.1,   22.0,   21.6,   21.7,   21.4,   20.2,   22.4,   21.9,   21.5,   21.8,   22.8,   23.5,   24.1,   24.4,   24.7,   24.9,   25.3,   25.9,   26.6,   27.7,   26.5,   26.7,   26.5,   27.1,   26.6,   26.0,   26.2,   26.2,   27.2,   27.2,   27.2,   27.6,   29.1,   30.9,  999.0,  999.0,  999.0,   25.5,  999.0,  999.0,  999.0,  999.0
2000/11/02 01:30,   -0.7,    2.2,    5.5,    6.4,    6.3,    7.8,    9.6,   11.6,   13.6,   15.4,   15.4,   15.9,   16.8,   18.2,   18.6,   18.4,   18.2,   19.3,   20.1,   20.3,   20.2,   20.9,   22.0,   22.0,   21.8,   20.6,   21.1,   22.0,   20.4,   21.5,   21.8,   22.4,   22.9,   23.2,   23.6,   24.2,   24.9,   26.4,   26.1,   26.7,   26.6,   26.2,   25.9,   26.1,   25.0,   25.2,   25.2,   25.5,   25.2,   25.3,   25.7,   26.3,   26.3,   26.0,  999.0,  999.0,  999.0,  999.0,  999.0,  999.0,  999.0,  999.0,  999.0
2000/11/02 01:40,   -1.6,    1.1,    4.1,    4.6,    5.8,    7.7,    9.9,   12.1,   14.2,   15.7,   16.0,   15.4,   15.9,   17.0,   17.7,   17.8,   19.0,   19.3,   20.3,   20.9,   21.2,   21.5,   20.7,   20.4,   20.6,   21.2,   23.1,   25.6,   25.7,   26.8,   27.4,   27.4,   28.5,   28.8,   29.2,   29.1,   27.6,   26.1,   25.7,   25.0,   24.7,   25.9,   25.7,   25.7,   25.5,   25.2,   24.4,   23.9,   23.5,   23.3,   23.2,   22.9,   23.0,   22.9,   22.8,   23.0,   23.0,   23.4,   23.5,   23.8,   24.3,   24.7,   25.7
2000/11/02 01:50,   -2.3,    0.3,    3.0,    4.4,    6.7,    9.0,   11.3,   12.8,   14.7,   15.4,   15.5,   16.0,   16.6,   17.3,   18.1,   18.6,   19.5,   19.8,   20.0,   20.1,   20.0,   20.3,   20.7,   21.4,   21.3,   22.0,   22.9,   23.5,   24.4,   24.5,   26.0,   26.9,   28.5,   29.6,   30.0,   28.9,   28.4,   26.8,   26.3,   25.5,   25.7,   24.9,   25.2,   25.8,   26.4,   26.2,   26.6,   26.7,   26.2,   25.8,   25.8,   26.0,   26.3,   25.7,   26.0,   26.2,   25.2,   24.1,   23.4,   24.8,   24.7,   24.8,   25.3
2000/11/02 02:00,   -4.3,   -0.8,    2.1,    4.2,    5.9,    7.3,   10.9,   11.3,   12.9,   14.5,   15.1,   14.1,   14.5,   15.9,   16.2,   15.7,   16.1,   16.9,   17.7,   19.2,   19.0,   18.8,   20.0,   22.2,   23.6,   25.4,   26.5,   27.3,   28.0,   27.7,   28.2,   29.7,   30.3,   29.1,   28.6,   28.3,   28.1,   28.2,   27.8,   27.5,   27.7,   28.8,   28.5,   28.8,   28.2,   29.1,   28.5,   28.3,   27.9,   28.1,   28.3,   27.5,   26.8,   28.0,   27.2,   25.3,   25.9,   25.5,   25.2,   25.2,   24.8,   24.7,   22.9
2000/11/02 02:10,  999.0,   -2.5,    1.4,    1.9,    6.7,    8.7,    8.7,   12.5,   14.3,   15.7,   16.3,   16.5,   16.5,   18.2,   19.5,   17.0,   17.0,   16.9,   20.2,   20.6,   19.8,   19.0,   21.5,   23.2,   22.9,   22.7,   25.8,   25.5,   26.3,   27.2,   27.2,   28.0,   28.1,   29.4,   28.3,   28.4,  999.0,  999.0,   27.8,   27.9,   27.3,   27.0,   27.2,   27.8,   27.9,   27.4,   26.6,   26.8,   27.1,   27.5,   27.9,   27.4,   27.0,   25.9,   25.5,   26.2,   26.6,   27.6,   27.3,  999.0,   28.0,  999.0,  999.0
2000/11/02 02:20,   -1.8,   -2.4,   -0.9,    3.5,    7.2,    7.2,    9.6,   13.6,   16.9,   17.5,   19.3,   21.2,   20.9,   20.9,   20.8,   22.7,   23.1,   25.0,   24.3,   25.0,   26.2,   26.5,   25.9,   25.5,   26.5,   23.3,   23.8,   23.8,   23.7,   24.1,   24.7,   25.4,   25.8,   26.6,   27.9,   28.3,  999.0,   28.2,   27.4,   26.7,   26.2,   26.3,   27.1,   27.6,   28.3,   28.9,  999.0,   28.3,   29.3,   30.6,   30.9,   31.2,   30.5,   28.7,   28.0,  999.0,  999.0,  999.0,  999.0,  999.0,  999.0,  999.0,  999.0
2000/11/02 02:30,   -3.0,   -1.3,    1.2,    3.6,    6.5,   10.0,   12.9,   15.1,   17.5,   18.8,   18.9,   20.5,   21.2,   22.0,   22.2,   23.1,   23.2,   23.1,   23.9,   23.8,   23.3,   23.5,   23.1,   23.4,   23.0,   23.6,   23.7,   24.4,   22.7,   20.9,   22.8,   24.1,   24.7,   24.0,   26.3,   25.6,   26.4,   27.0,   27.6,   27.9,   28.0,   28.5,   28.5,   27.9,   28.8,   28.8,   30.3,   30.4,   29.9,   29.8,   29.3,   29.2,  999.0,   29.2,   28.1,   27.4,   27.3,   28.0,   27.9,  999.0,  999.0,  999.0,  999.0
2000/11/02 02:40,   -1.9,    0.5,    3.5,    6.5,   10.3,   13.6,   15.5,   16.9,   18.2,   19.4,   20.6,   21.3,   22.2,   22.1,   21.9,   22.7,   23.3,   22.4,   21.7,   21.8,   22.3,   22.4,   23.1,   24.0,   24.4,   23.3,   24.1,   26.4,   26.9,   27.2,   26.2,   27.4,   27.5,   25.2,   26.4,   25.9,   25.8,   24.8,   25.5,   26.1,   26.4,   26.6,   25.9,   25.6,   25.0,   25.8,  999.0,  999.0,  999.0,  999.0,  999.0,  999.0,  999.0,  999.0,  999.0,  999.0,  999.0,  999.0,  999.0,  999.0,  999.0,  999.0,  999.0
2000/11/02 02:50,   -0.3,    3.6,   10.0,    5.6,    9.4,   14.5,   14.2,   14.4,   14.6,   15.5,   17.8,   18.0,   18.1,   18.7,   17.9,   19.6,   22.1,   23.9,   22.7,   23.1,   23.6,   23.7,   24.2,   23.5,   23.9,   24.9,   25.8,   27.8,   27.5,   27.7,   27.2,   26.5,   25.8,   26.1,   26.5,   27.1,   25.8,   25.7,   26.6,   26.1,   24.9,   24.9,   24.3,   23.2,   22.9,   23.1,   23.2,   22.7,   22.3,  999.0,   26.6,   27.1,   27.8,   28.2,   28.4,   28.3,   29.2,  999.0,  999.0,  999.0,  999.0,  999.0,  999.0
2000/11/02 03:00,    0.2,    3.2,    6.8,    7.5,   10.1,   11.6,   12.9,   13.4,   14.7,   16.0,   17.7,   18.5,   20.1,   20.6,   21.5,   24.7,   19.1,   24.1,   26.9,   28.5,   26.6,   28.4,   29.9,   34.4,   31.7,   29.8,   27.6,   27.0,   27.1,   26.2,   26.1,   25.5,   25.9,   25.8,   25.8,   26.4,   25.1,   25.5,   25.6,   26.5,   25.9,   26.0,   25.8,  999.0,   27.1,   26.6,  999.0,   26.5,  999.0,  999.0,  999.0,  999.0,  999.0,  999.0,  999.0,  999.0,  999.0,  999.0,  999.0,  999.0,  999.0,  999.0,  999.0
2000/11/02 03:10,    1.6,  999.0,  999.0,    9.3,    8.6,   11.8,   16.7,   15.7,   16.0,   16.2,   17.6,   19.4,   21.0,   13.5,   22.4,   20.6,   22.4,   23.6,   22.7,   23.2,   23.6,   24.9,   25.9,   26.3,   26.9,   26.9,   25.8,   25.6,   25.1,   26.0,   26.4,   27.1,   26.9,   26.2,   24.7,   24.3,   24.0,   22.8,  999.0,   24.1,  999.0,   25.8,  999.0,  999.0,  999.0,  999.0,  999.0,  999.0,  999.0,  999.0,  999.0,  999.0,  999.0,  999.0,  999.0,  999.0,  999.0,  999.0,  999.0,  999.0,  999.0,  999.0,  999.0
2000/11/02 03:20,    0.3,    4.6,    7.8,   11.4,   13.0,   19.9,   18.8,   17.3,   18.2,   19.5,   19.4,   19.5,   20.0,   20.7,   21.6,   21.6,   21.4,   21.0,   21.8,   22.9,   23.3,   24.2,   23.7,   23.8,   23.5,   24.4,   24.5,   26.6,  999.0,  999.0,   28.7,   28.6,   27.5,   26.9,   26.5,   25.8,   25.1,   25.3,   25.4,   25.9,   26.4,   27.2,   28.0,   28.2,   29.5,   29.3,   30.1,   30.2,   30.4,  999.0,  999.0,  999.0,  999.0,   29.0,   29.3,   28.9,   29.7,   28.9,  999.0,  999.0,  999.0,  999.0,  999.0
2000/11/02 03:30,    0.9,    4.6,    6.4,    5.8,    7.5,   13.7,   14.7,  999.0,   17.8,   19.6,   19.6,   20.1,   20.8,   21.7,   22.3,   22.1,   22.9,   22.3,   22.6,   22.9,   24.8,   25.2,   24.2,   24.5,   24.6,   24.9,   27.3,  999.0,   27.6,   29.6,   30.0,   29.3,   29.3,   30.3,   30.5,   30.1,   28.8,   29.0,   28.0,   28.8,   28.2,   28.3,   29.8,   28.8,   30.4,  999.0,   29.7,  999.0,  999.0,  999.0,  999.0,  999.0,  999.0,  999.0,  999.0,  999.0,  999.0,  999.0,  999.0,  999.0,  999.0,  999.0,  999.0
2000/11/02 03:40,    2.6,    5.7,   10.1,   11.3,   12.6,   14.2,   16.2,   18.0,   18.9,   19.8,   21.3,   20.8,   20.8,   21.6,   22.2,   22.1,   22.1,   21.0,   21.4,   23.7,   24.9,   26.0,   27.4,   25.8,   26.9,   27.9,   28.7,   29.2,   30.6,   30.5,   28.7,   27.4,   27.0,   27.2,   27.8,   28.4,   28.6,   28.9,   28.4,   27.7,   27.9,   27.7,   27.9,   26.9,   27.6,   28.5,   27.2,  999.0,   27.2,  999.0,   27.1,   28.5,  999.0,  999.0,  999.0,  999.0,  999.0,  999.0,  999.0,  999.0,  999.0,  999.0,  999.0
2000/11/02 03:50,    3.3,    4.6,    9.8,   13.0,   14.1,   16.3,   16.7,   16.7,   16.8,   18.9,   20.4,   21.2,   21.0,   21.0,   20.8,   20.6,   20.6,   21.8,   22.9,   23.8,   25.2,   26.4,   28.4,   28.2,   28.4,   28.3,   28.6,   29.5,   29.6,   30.2,   29.7,   29.1,   28.5,   28.4,   29.1,   28.2,   27.6,   27.6,   27.9,   28.4,   28.5,   27.8,   26.8,  999.0,  999.0,  999.0,  999.0,  999.0,  999.0,  999.0,  999.0,  999.0,  999.0,  999.0,  999.0,  999.0,  999.0,  999.0,  999.0,  999.0,  999.0,  999.0,  999.0
2000/11/02 04:00,    1.4,    5.7,    9.5,   11.2,   13.6,   15.9,   14.6,   15.1,   13.9,   17.8,   19.9,   21.1,   20.9,   21.9,   22.4,   22.3,   21.7,   22.2,   23.2,   24.0,   24.4,   25.1,   25.5,   26.3,   26.5,   26.3,   28.2,   29.5,   29.1,   29.0,   28.2,   28.0,   27.8,   28.0,   27.5,   26.9,   25.7,   25.5,   25.3,   25.3,   25.6,   26.1,   26.7,   26.9,   27.7,   26.2,   27.4,   28.8,  999.0,  999.0,  999.0,  999.0,  999.0,  999.0,  999.0,  999.0,  999.0,  999.0,  999.0,  999.0,  999.0,  999.0,  999.0
2000/11/02 04:10,    0.6,  999.0,    9.5,   11.3,   13.8,   15.2,   16.1,   17.6,   19.0,   20.6,   21.8,   20.8,   20.4,   21.3,   22.0,   21.6,   21.3,  999.0,   20.7,  999.0,  999.0,   23.6,   24.1,   24.1,   25.4,   25.6,  999.0,   26.7,  999.0,  999.0,  999.0,  999.0,  999.0,  999.0,  999.0,   25.9,  999.0,  999.0,  999.0,  999.0,   24.4,   24.1,  999.0,  999.0,  999.0,   25.4,  999.0,  999.0,  999.0,  999.0,  999.0,  999.0,  999.0,  999.0,  999.0,  999.0,  999.0,  999.0,  999.0,  999.0,  999.0,  999.0,  999.0
2000/11/02 04:20,    0.5,    7.5,    9.5,   11.7,   13.6,   15.6,   17.3,   17.2,   18.2,   19.8,   21.2,   21.2,   20.4,   21.3,   22.0,   21.7,   21.8,   22.3,   22.5,   21.9,   23.1,   24.2,   24.4,   24.3,   24.8,   25.3,  999.0,   25.5,   26.6,  999.0,  999.0,  999.0,  999.0,  999.0,  999.0,  999.0,  999.0,  999.0,  999.0,  999.0,  999.0,  999.0,  999.0,  999.0,  999.0,  999.0,  999.0,  999.0,  999.0,  999.0,  999.0,  999.0,  999.0,  999.0,  999.0,  999.0,  999.0,  999.0,  999.0,  999.0,  999.0,  999.0,  999.0
2000/11/02 04:30,    1.5,    7.7,    9.9,   13.0,   14.7,   16.6,   17.2,   17.0,   17.9,   20.6,   21.4,   20.5,   21.5,   21.1,   22.0,   21.8,   22.3,   22.8,   22.8,   23.6,   23.0,   23.6,   23.8,   23.4,   24.5,  999.0,  999.0,   25.5,   27.3,  999.0,  999.0,  999.0,  999.0,  999.0,  999.0,  999.0,  999.0,  999.0,  999.0,  999.0,  999.0,  999.0,  999.0,  999.0,  999.0,  999.0,  999.0,  999.0,  999.0,  999.0,  999.0,  999.0,  999.0,  999.0,  999.0,  999.0,  999.0,  999.0,  999.0,  999.0,  999.0,  999.0,  999.0
2000/11/02 04:40,  999.0,    7.5,    9.8,   13.4,   14.3,   15.5,   17.2,   18.7,   19.4,   20.9,   21.2,   21.9,   22.2,   21.2,   20.9,   20.8,   21.4,   22.1,   22.1,   21.2,   21.5,   22.3,   22.8,   22.5,   22.7,   23.3,  999.0,   23.6,   24.3,   24.6,  999.0,  999.0,  999.0,  999.0,  999.0,  999.0,  999.0,  999.0,  999.0,  999.0,  999.0,  999.0,  999.0,  999.0,  999.0,  999.0,  999.0,  999.0,  999.0,  999.0,  999.0,  999.0,  999.0,  999.0,  999.0,  999.0,  999.0,  999.0,  999.0,  999.0,  999.0,  999.0,  999.0
2000/11/02 04:50,  999.0,    6.6,  999.0,   13.0,   14.3,   16.5,   18.0,   19.6,   20.5,   21.1,   21.1,   21.3,   22.7,   21.6,   20.9,   20.6,   20.8,   21.5,   21.5,   21.6,   21.1,   20.9,   22.1,   22.0,   22.6,   23.8,  999.0,   23.8,   25.7,  999.0,  999.0,  999.0,  999.0,  999.0,  999.0,  999.0,  999.0,  999.0,  999.0,  999.0,  999.0,  999.0,  999.0,  999.0,  999.0,  999.0,  999.0,  999.0,  999.0,  999.0,  999.0,  999.0,  999.0,  999.0,  999.0,  999.0,  999.0,  999.0,  999.0,  999.0,  999.0,  999.0,  999.0
2000/11/02 05:00,  999.0,  999.0,   12.3,   12.9,   14.4,   16.1,   17.8,   19.2,   20.2,   21.0,   21.4,   22.8,   22.7,   22.0,   21.4,   21.1,   21.4,   21.8,   21.8,   22.0,  999.0,   21.7,   22.5,   22.4,   22.7,  999.0,  999.0,   24.9,  999.0,   24.0,  999.0,   26.2,  999.0,  999.0,  999.0,  999.0,  999.0,  999.0,  999.0,  999.0,  999.0,  999.0,  999.0,  999.0,  999.0,  999.0,  999.0,  999.0,  999.0,  999.0,  999.0,  999.0,  999.0,  999.0,  999.0,  999.0,  999.0,  999.0,  999.0,  999.0,  999.0,  999.0,  999.0
2000/11/02 05:10,    1.4,    7.6,   11.2,   11.1,   14.1,   15.7,   17.8,   19.3,   20.2,   19.6,   20.9,   21.5,   22.3,   21.4,   20.7,   20.2,   20.4,   20.5,   20.3,   20.4,   20.5,   20.6,   21.2,  999.0,   21.2,   22.0,   22.8,   24.5,  999.0,   24.6,   25.1,  999.0,   24.9,  999.0,  999.0,  999.0,  999.0,  999.0,  999.0,  999.0,  999.0,  999.0,  999.0,  999.0,  999.0,  999.0,  999.0,  999.0,  999.0,  999.0,  999.0,  999.0,  999.0,  999.0,  999.0,  999.0,  999.0,  999.0,  999.0,  999.0,  999.0,  999.0,  999.0
2000/11/02 05:20,  999.0,  999.0,   11.2,   12.5,   14.6,   16.4,   18.2,   19.1,   19.9,   19.4,   20.5,   21.6,   21.0,   20.9,   20.3,   19.7,   19.9,   19.8,   19.7,  999.0,  999.0,  999.0,   20.6,   21.4,   21.5,   22.5,   23.1,  999.0,  999.0,   25.0,  999.0,  999.0,  999.0,   24.3,  999.0,  999.0,  999.0,  999.0,  999.0,  999.0,  999.0,  999.0,  999.0,  999.0,  999.0,  999.0,  999.0,  999.0,  999.0,  999.0,  999.0,  999.0,  999.0,  999.0,  999.0,  999.0,  999.0,  999.0,  999.0,  999.0,  999.0,  999.0,  999.0
2000/11/02 05:30,    1.6,  999.0,    9.6,   12.8,   14.7,   15.7,   17.1,   17.9,   18.8,   19.1,   20.1,   20.4,   20.8,   20.8,   20.2,   19.9,   19.8,   20.1,   19.7,  999.0,  999.0,  999.0,   21.4,   22.2,   22.3,  999.0,  999.0,  999.0,   24.4,  999.0,  999.0,  999.0,  999.0,  999.0,  999.0,  999.0,  999.0,  999.0,  999.0,  999.0,  999.0,  999.0,  999.0,  999.0,  999.0,  999.0,  999.0,  999.0,  999.0,  999.0,  999.0,  999.0,  999.0,  999.0,  999.0,  999.0,  999.0,  999.0,  999.0,  999.0,  999.0,  999.0,  999.0
2000/11/02 05:40,   -1.3,    0.1,    6.6,   13.1,   14.1,   16.1,   17.3,   18.7,   19.0,   19.2,   18.9,   19.8,   20.0,   21.1,   21.2,   20.4,   20.0,   19.9,   19.2,   19.5,   19.2,   20.4,   20.6,   21.4,   21.3,  999.0,  999.0,  999.0,   23.2,  999.0,  999.0,  999.0,  999.0,  999.0,  999.0,  999.0,  999.0,  999.0,  999.0,  999.0,  999.0,  999.0,  999.0,  999.0,  999.0,  999.0,  999.0,  999.0,  999.0,  999.0,  999.0,  999.0,  999.0,  999.0,  999.0,  999.0,  999.0,  999.0,  999.0,  999.0,  999.0,  999.0,  999.0
2000/11/02 05:50,    0.4,    3.7,    7.5,   11.0,   14.3,   15.7,   17.0,   18.0,   19.2,   19.9,   20.4,   20.9,   21.1,   21.0,   21.0,   21.1,   20.4,   19.4,   19.4,   19.7,   20.0,   20.0,   21.8,   22.5,  999.0,  999.0,   23.2,  999.0,  999.0,  999.0,  999.0,  999.0,  999.0,  999.0,  999.0,  999.0,  999.0,  999.0,  999.0,  999.0,  999.0,  999.0,  999.0,  999.0,  999.0,  999.0,  999.0,  999.0,  999.0,  999.0,  999.0,  999.0,  999.0,  999.0,  999.0,  999.0,  999.0,  999.0,  999.0,  999.0,  999.0,  999.0,  999.0
2000/11/02 06:00,    0.1,    4.8,   10.9,   13.0,   15.1,   16.3,   18.1,   19.2,   19.7,   20.1,   20.7,   20.9,   21.0,   21.3,   21.3,   20.7,   20.3,   19.9,   19.7,   19.6,   19.7,   20.6,  999.0,   22.6,   22.6,  999.0,   23.8,  999.0,  999.0,  999.0,  999.0,  999.0,  999.0,  999.0,  999.0,  999.0,  999.0,  999.0,  999.0,  999.0,  999.0,  999.0,  999.0,  999.0,  999.0,  999.0,  999.0,  999.0,  999.0,  999.0,  999.0,  999.0,  999.0,  999.0,  999.0,  999.0,  999.0,  999.0,  999.0,  999.0,  999.0,  999.0,  999.0
2000/11/02 06:10,    0.0,    6.9,   11.4,   13.0,   15.6,   17.0,   18.0,   18.5,   18.5,   19.4,   20.2,   20.5,   19.6,   20.2,   20.0,   19.8,   19.8,   19.7,   19.6,   19.8,   20.5,   20.9,   22.6,   22.9,   24.3,  999.0,  999.0,  999.0,  999.0,  999.0,   24.6,  999.0,  999.0,  999.0,  999.0,  999.0,  999.0,  999.0,  999.0,  999.0,  999.0,  999.0,  999.0,  999.0,  999.0,  999.0,  999.0,  999.0,  999.0,  999.0,  999.0,  999.0,  999.0,  999.0,  999.0,  999.0,  999.0,  999.0,  999.0,  999.0,  999.0,  999.0,  999.0
2000/11/02 06:20,   -0.0,   10.8,   12.2,   13.7,   15.8,   17.3,   18.2,   18.8,   19.1,   20.2,   20.4,   20.4,   20.4,   20.5,   20.0,   19.8,   20.0,   19.7,   19.8,   20.8,  999.0,  999.0,  999.0,   23.3,  999.0,   24.9,  999.0,  999.0,  999.0,  999.0,  999.0,  999.0,  999.0,  999.0,  999.0,  999.0,  999.0,  999.0,  999.0,  999.0,  999.0,  999.0,  999.0,  999.0,  999.0,  999.0,  999.0,  999.0,  999.0,  999.0,  999.0,  999.0,  999.0,  999.0,  999.0,  999.0,  999.0,  999.0,  999.0,  999.0,  999.0,  999.0,  999.0
2000/11/02 06:30,    0.0,    6.7,   12.6,   14.3,   15.5,   16.7,   18.0,   19.6,   20.1,   21.0,   21.0,   20.5,   20.1,   19.6,   19.8,   20.4,   20.5,   20.0,   19.9,   21.3,   21.8,   22.4,  999.0,  999.0,   23.6,   24.5,  999.0,  999.0,  999.0,   24.6,  999.0,  999.0,   25.0,  999.0,  999.0,  999.0,  999.0,  999.0,  999.0,  999.0,  999.0,  999.0,  999.0,  999.0,  999.0,  999.0,  999.0,  999.0,  999.0,  999.0,  999.0,  999.0,  999.0,  999.0,  999.0,  999.0,  999.0,  999.0,  999.0,  999.0,  999.0,  999.0,  999.0
2000/11/02 06:40,   -0.0,    1.2,   12.9,   14.7,   16.1,   17.0,   18.0,   18.8,   19.4,   20.0,   20.4,   20.4,   20.9,   20.5,   20.0,   19.8,   20.0,   20.1,   20.1,   20.4,   21.1,   22.3,  999.0,   21.9,   22.1,  999.0,  999.0,  999.0,  999.0,  999.0,  999.0,  999.0,  999.0,  999.0,  999.0,  999.0,  999.0,  999.0,  999.0,  999.0,  999.0,  999.0,  999.0,  999.0,  999.0,  999.0,  999.0,  999.0,  999.0,  999.0,  999.0,  999.0,  999.0,  999.0,  999.0,  999.0,  999.0,  999.0,  999.0,  999.0,  999.0,  999.0,  999.0
2000/11/02 06:50,  999.0,  999.0,   12.5,   14.0,   15.8,   16.9,   17.7,   18.5,   18.8,   19.4,   20.1,   20.9,   20.7,   19.7,   19.3,   20.0,   19.7,   19.8,   19.8,   19.1,   19.6,   21.5,   21.3,   22.3,   22.0,   21.8,  999.0,  999.0,  999.0,  999.0,  999.0,  999.0,  999.0,  999.0,  999.0,  999.0,  999.0,  999.0,  999.0,  999.0,  999.0,  999.0,  999.0,  999.0,  999.0,  999.0,  999.0,  999.0,  999.0,  999.0,  999.0,  999.0,  999.0,  999.0,  999.0,  999.0,  999.0,  999.0,  999.0,  999.0,  999.0,  999.0,  999.0
2000/11/02 07:00,  999.0,    9.5,   11.2,   14.0,   15.0,   15.8,   17.3,   18.4,   19.0,   19.7,   19.9,   20.7,  999.0,   19.1,   18.9,   18.4,   19.1,   19.9,   20.2,   20.1,   20.2,   20.8,   23.0,   21.7,   21.9,   22.2,  999.0,  999.0,  999.0,  999.0,   26.6,  999.0,  999.0,  999.0,  999.0,  999.0,  999.0,  999.0,  999.0,  999.0,  999.0,  999.0,  999.0,  999.0,  999.0,  999.0,  999.0,  999.0,  999.0,  999.0,  999.0,  999.0,  999.0,  999.0,  999.0,  999.0,  999.0,  999.0,  999.0,  999.0,  999.0,  999.0,  999.0
2000/11/02 07:10,  999.0,   10.8,   13.2,   13.2,   14.6,   15.7,   16.9,   17.4,   17.7,   18.3,   19.0,   19.8,   19.8,   20.1,   21.0,   19.6,   20.0,   21.2,   20.3,   20.8,   21.4,   22.2,   23.0,  999.0,  999.0,   23.4,   23.8,   24.0,   24.8,   27.0,  999.0,   25.2,  999.0,  999.0,  999.0,  999.0,  999.0,  999.0,  999.0,  999.0,  999.0,  999.0,  999.0,  999.0,  999.0,  999.0,  999.0,  999.0,  999.0,  999.0,  999.0,  999.0,  999.0,  999.0,  999.0,  999.0,  999.0,  999.0,  999.0,  999.0,  999.0,  999.0,  999.0
2000/11/02 07:20,  999.0,   10.9,   12.2,   13.3,   13.9,   15.4,   16.4,   18.0,   19.2,   18.3,   18.6,   18.6,   19.9,   20.7,   20.5,   19.2,   19.7,   20.6,   21.0,   21.6,   22.8,   23.6,   24.7,   25.6,  999.0,  999.0,  999.0,  999.0,  999.0,   27.0,  999.0,  999.0,  999.0,  999.0,  999.0,  999.0,  999.0,  999.0,  999.0,  999.0,  999.0,  999.0,  999.0,  999.0,  999.0,  999.0,  999.0,  999.0,  999.0,  999.0,  999.0,  999.0,  999.0,  999.0,  999.0,  999.0,  999.0,  999.0,  999.0,  999.0,  999.0,  999.0,  999.0
2000/11/02 07:30,    6.0,    7.8,   11.2,   13.7,   15.5,   17.2,   16.7,   17.2,   17.7,   18.1,   18.7,   20.2,   20.7,   21.0,   20.6,   20.9,   21.4,   22.0,   22.4,   22.0,   22.0,   23.6,   24.9,   25.5,  999.0,  999.0,  999.0,  999.0,  999.0,  999.0,  999.0,  999.0,  999.0,  999.0,  999.0,  999.0,  999.0,  999.0,  999.0,  999.0,  999.0,  999.0,  999.0,  999.0,  999.0,  999.0,  999.0,  999.0,  999.0,  999.0,  999.0,  999.0,  999.0,  999.0,  999.0,  999.0,  999.0,  999.0,  999.0,  999.0,  999.0,  999.0,  999.0
2000/11/02 07:40,  999.0,  999.0,  999.0,   14.8,   15.9,   16.6,   16.2,   16.3,   16.9,   17.0,   18.4,   19.4,   19.6,   20.6,   20.0,   19.6,   19.8,   19.8,   20.2,   20.4,   21.3,   22.5,  999.0,   22.7,   23.4,  999.0,  999.0,  999.0,  999.0,  999.0,  999.0,  999.0,  999.0,  999.0,  999.0,  999.0,  999.0,  999.0,  999.0,  999.0,  999.0,  999.0,  999.0,  999.0,  999.0,  999.0,  999.0,  999.0,  999.0,  999.0,  999.0,  999.0,  999.0,  999.0,  999.0,  999.0,  999.0,  999.0,  999.0,  999.0,  999.0,  999.0,  999.0
2000/11/02 07:50,    6.5,    6.9,   13.3,   14.9,   14.8,   15.5,   16.3,   16.8,   16.9,   17.6,   18.5,   18.9,   19.6,   19.6,   18.9,   19.1,   19.0,   19.3,   19.7,   20.3,   20.9,   21.7,   23.2,   23.5,  999.0,  999.0,  999.0,  999.0,  999.0,  999.0,  999.0,  999.0,  999.0,  999.0,  999.0,  999.0,  999.0,  999.0,  999.0,  999.0,  999.0,  999.0,  999.0,  999.0,  999.0,  999.0,  999.0,  999.0,  999.0,  999.0,  999.0,  999.0,  999.0,  999.0,  999.0,  999.0,  999.0,  999.0,  999.0,  999.0,  999.0,  999.0,  999.0
2000/11/02 08:00,  999.0,  999.0,   13.4,   12.5,   12.8,   13.4,   14.2,   15.4,   15.9,   16.8,   16.7,   16.6,   16.9,   17.7,   18.2,   19.6,   20.2,   20.5,   21.0,   21.3,   22.4,   23.6,   23.5,  999.0,  999.0,  999.0,  999.0,  999.0,  999.0,  999.0,  999.0,  999.0,  999.0,  999.0,  999.0,  999.0,  999.0,  999.0,  999.0,  999.0,  999.0,  999.0,  999.0,  999.0,  999.0,  999.0,  999.0,  999.0,  999.0,  999.0,  999.0,  999.0,  999.0,  999.0,  999.0,  999.0,  999.0,  999.0,  999.0,  999.0,  999.0,  999.0,  999.0
2000/11/02 08:10,    3.7,    2.7,   10.7,   12.0,   12.0,   12.6,   13.9,   14.9,   15.1,   16.7,   17.0,   17.1,   17.2,   17.4,   18.3,   19.8,   20.0,   20.0,   20.5,   20.9,   21.7,   22.6,   23.6,  999.0,  999.0,  999.0,  999.0,  999.0,  999.0,  999.0,  999.0,  999.0,  999.0,  999.0,  999.0,  999.0,  999.0,  999.0,  999.0,  999.0,  999.0,  999.0,  999.0,  999.0,  999.0,  999.0,  999.0,  999.0,  999.0,  999.0,  999.0,  999.0,  999.0,  999.0,  999.0,  999.0,  999.0,  999.0,  999.0,  999.0,  999.0,  999.0,  999.0
2000/11/02 08:20,  999.0,    3.8,   11.2,   10.7,   10.7,   12.2,   14.3,   15.4,   16.0,   16.6,   17.4,   17.1,   17.5,   17.8,   18.5,   20.0,   20.5,   20.9,   20.9,   21.5,   21.8,   22.3,   23.1,   25.9,  999.0,   26.1,  999.0,  999.0,  999.0,  999.0,  999.0,  999.0,  999.0,  999.0,  999.0,  999.0,  999.0,  999.0,  999.0,  999.0,  999.0,  999.0,  999.0,  999.0,  999.0,  999.0,  999.0,  999.0,  999.0,  999.0,  999.0,  999.0,  999.0,  999.0,  999.0,  999.0,  999.0,  999.0,  999.0,  999.0,  999.0,  999.0,  999.0
2000/11/02 08:30,    1.5,  999.0,    9.2,    9.8,   10.5,   12.7,   13.9,   14.7,   15.9,   15.5,   14.9,   15.4,   16.8,   17.4,   17.9,   18.8,   20.3,   20.5,   20.7,   21.2,   21.5,   22.0,   23.6,   25.3,  999.0,  999.0,  999.0,  999.0,  999.0,  999.0,  999.0,  999.0,  999.0,  999.0,  999.0,  999.0,  999.0,  999.0,  999.0,  999.0,  999.0,  999.0,  999.0,  999.0,  999.0,  999.0,  999.0,  999.0,  999.0,  999.0,  999.0,  999.0,  999.0,  999.0,  999.0,  999.0,  999.0,  999.0,  999.0,  999.0,  999.0,  999.0,  999.0
2000/11/02 08:40,  999.0,    6.5,   10.9,    8.7,   10.6,   12.4,   13.7,   14.1,   12.5,   12.4,   13.8,   14.9,   14.3,   15.0,   15.9,   18.3,   20.0,   20.8,   20.4,   21.1,   21.6,   22.8,   24.5,   24.7,  999.0,  999.0,   24.0,  999.0,  999.0,  999.0,  999.0,  999.0,  999.0,  999.0,  999.0,  999.0,  999.0,  999.0,  999.0,  999.0,  999.0,  999.0,  999.0,  999.0,  999.0,  999.0,  999.0,  999.0,  999.0,  999.0,  999.0,  999.0,  999.0,  999.0,  999.0,  999.0,  999.0,  999.0,  999.0,  999.0,  999.0,  999.0,  999.0
2000/11/02 08:50,  999.0,  999.0,    8.4,    8.3,   10.4,   12.1,   11.9,   11.9,   13.0,   13.5,   15.0,   14.8,   15.0,   15.2,   16.9,   19.3,   18.6,   19.9,   20.4,   21.0,   21.4,   22.7,   23.4,  999.0,  999.0,  999.0,  999.0,  999.0,  999.0,  999.0,  999.0,  999.0,  999.0,  999.0,  999.0,  999.0,  999.0,  999.0,  999.0,  999.0,  999.0,  999.0,  999.0,  999.0,  999.0,  999.0,  999.0,  999.0,  999.0,  999.0,  999.0,  999.0,  999.0,  999.0,  999.0,  999.0,  999.0,  999.0,  999.0,  999.0,  999.0,  999.0,  999.0
2000/11/02 09:00,  999.0,    4.5,    4.4,    8.2,   10.7,   10.8,   11.0,   12.3,   14.2,   15.0,   15.4,   15.4,   15.2,   16.2,   16.5,   18.0,   19.3,   19.0,   19.8,   20.1,   21.8,  999.0,   24.1,  999.0,  999.0,  999.0,  999.0,  999.0,  999.0,  999.0,  999.0,  999.0,  999.0,  999.0,  999.0,   29.3,  999.0,  999.0,  999.0,  999.0,  999.0,  999.0,  999.0,  999.0,  999.0,  999.0,  999.0,  999.0,  999.0,  999.0,  999.0,  999.0,  999.0,  999.0,  999.0,  999.0,  999.0,  999.0,  999.0,  999.0,  999.0,  999.0,  999.0
2000/11/02 09:10,  999.0,    1.6,    4.7,    8.2,    8.6,    8.7,   10.2,   11.7,   13.0,   13.2,   13.2,   14.0,   14.9,   15.5,   16.5,   17.7,   18.5,   19.7,   19.3,   19.9,   22.1,   23.8,   25.4,  999.0,  999.0,  999.0,  999.0,  999.0,  999.0,  999.0,  999.0,  999.0,  999.0,  999.0,  999.0,  999.0,  999.0,  999.0,  999.0,  999.0,  999.0,  999.0,  999.0,  999.0,  999.0,  999.0,  999.0,  999.0,  999.0,  999.0,  999.0,  999.0,  999.0,  999.0,  999.0,  999.0,  999.0,  999.0,  999.0,  999.0,  999.0,  999.0,  999.0
2000/11/02 09:20,   -0.6,    3.7,    4.5,    6.0,    8.1,    8.4,    9.8,   10.9,   12.6,   13.8,   14.5,   14.8,   15.2,   16.2,   17.3,   18.2,   19.1,   20.0,   20.1,   21.0,   22.4,   24.2,   25.5,  999.0,  999.0,  999.0,  999.0,  999.0,  999.0,  999.0,  999.0,  999.0,  999.0,  999.0,  999.0,  999.0,  999.0,  999.0,  999.0,  999.0,  999.0,  999.0,  999.0,  999.0,  999.0,  999.0,  999.0,  999.0,  999.0,  999.0,  999.0,  999.0,  999.0,  999.0,  999.0,  999.0,  999.0,  999.0,  999.0,  999.0,   22.2,   23.2,   23.0
2000/11/02 09:30,  999.0,    3.3,    4.6,    6.4,  999.0,    7.1,    8.4,   10.0,   12.6,   13.2,   14.1,   14.4,   15.4,   16.3,   17.5,   18.4,   19.8,   21.3,   20.7,   22.3,   24.0,   25.4,   26.8,  999.0,  999.0,  999.0,  999.0,  999.0,  999.0,  999.0,  999.0,  999.0,  999.0,  999.0,  999.0,  999.0,  999.0,  999.0,  999.0,  999.0,  999.0,  999.0,  999.0,  999.0,  999.0,  999.0,  999.0,  999.0,  999.0,  999.0,  999.0,  999.0,  999.0,  999.0,  999.0,  999.0,  999.0,  999.0,   21.4,   21.8,   22.1,   23.5,   24.1
2000/11/02 09:40,  999.0,    3.2,    6.0,    6.9,    5.9,    7.1,    8.4,    9.8,   11.7,   13.7,   14.2,   15.5,   16.1,   16.5,   17.3,   18.3,   19.8,   21.0,   20.8,   21.0,   23.0,   24.3,   25.1,  999.0,  999.0,  999.0,  999.0,   25.2,   27.7,  999.0,  999.0,   28.8,  999.0,  999.0,  999.0,  999.0,  999.0,  999.0,  999.0,  999.0,  999.0,  999.0,  999.0,  999.0,  999.0,  999.0,  999.0,  999.0,  999.0,  999.0,  999.0,  999.0,  999.0,  999.0,  999.0,  999.0,  999.0,  999.0,  999.0,  999.0,   21.4,   21.8,   22.8
2000/11/02 09:50,    1.0,    2.8,  999.0,    5.0,    5.8,    6.4,    8.2,    9.0,   10.0,   10.9,   12.9,   14.2,   15.7,   16.7,   18.0,   19.3,   20.7,   20.8,   21.0,   22.4,   24.0,   25.6,  999.0,  999.0,  999.0,  999.0,  999.0,   27.2,   29.0,  999.0,  999.0,  999.0,  999.0,  999.0,  999.0,  999.0,  999.0,  999.0,  999.0,  999.0,   29.0,  999.0,  999.0,  999.0,  999.0,  999.0,  999.0,  999.0,  999.0,  999.0,  999.0,  999.0,  999.0,  999.0,  999.0,  999.0,  999.0,  999.0,  999.0,  999.0,  999.0,  999.0,   23.3
2000/11/02 10:00,    1.1,  999.0,    4.2,    4.0,    4.7,    6.3,    6.9,    8.3,    8.5,    9.8,   12.0,   13.4,   15.3,   15.6,   17.4,   18.9,   20.5,   20.8,   21.1,   22.8,   24.3,  999.0,  999.0,  999.0,  999.0,   27.9,   28.1,   28.8,   30.2,  999.0,  999.0,  999.0,  999.0,  999.0,  999.0,  999.0,  999.0,  999.0,  999.0,  999.0,   28.9,  999.0,  999.0,  999.0,  999.0,  999.0,  999.0,  999.0,  999.0,  999.0,  999.0,  999.0,  999.0,  999.0,  999.0,  999.0,  999.0,  999.0,  999.0,  999.0,  999.0,   24.5,   24.9
2000/11/02 10:10,  999.0,  999.0,    3.4,    2.0,    3.6,    5.2,    6.8,    9.3,   10.6,   11.6,   11.3,   14.4,   17.7,   17.2,   17.4,   18.7,   20.9,   21.3,   22.2,   24.1,   25.1,   26.1,   27.9,   27.4,  999.0,   28.9,  999.0,  999.0,  999.0,  999.0,  999.0,  999.0,  999.0,  999.0,  999.0,  999.0,  999.0,  999.0,   30.0,  999.0,   32.3,   32.4,   32.9,  999.0,  999.0,  999.0,  999.0,  999.0,  999.0,  999.0,  999.0,  999.0,  999.0,  999.0,  999.0,  999.0,  999.0,  999.0,  999.0,  999.0,   26.5,   26.9,   27.7
2000/11/02 10:20,   -1.0,  999.0,    1.9,  999.0,    3.1,    5.5,    6.6,    9.1,    8.6,   10.6,   12.3,   14.2,   14.7,   14.8,   17.0,   19.2,   21.4,   22.7,   23.6,   23.9,   25.5,   26.7,   27.9,   28.4,  999.0,  999.0,  999.0,  999.0,   30.6,  999.0,  999.0,  999.0,  999.0,  999.0,   30.8,   28.1,   27.5,   28.0,   29.0,  999.0,  999.0,  999.0,  999.0,  999.0,  999.0,  999.0,  999.0,  999.0,  999.0,  999.0,  999.0,  999.0,   26.6,   26.7,   27.3,   27.5,   27.2,   27.3,   27.1,   27.1,   26.8,   26.3,   26.3
2000/11/02 10:30,   -2.7,  999.0,  999.0,    0.8,    2.9,    4.8,    6.8,    8.1,   10.4,   12.7,   13.9,   15.4,   16.8,   17.1,   19.0,   20.0,   22.7,   22.7,   23.9,   24.8,   26.2,   27.3,   27.9,   28.4,  999.0,   30.8,   31.5,   32.7,  999.0,  999.0,  999.0,  999.0,  999.0,  999.0,  999.0,  999.0,  999.0,  999.0,  999.0,   29.5,  999.0,  999.0,  999.0,  999.0,  999.0,  999.0,  999.0,  999.0,  999.0,  999.0,  999.0,  999.0,  999.0,   27.0,   26.2,   26.0,   25.4,   25.6,   25.8,   25.9,   26.5,   27.3,   28.2
2000/11/02 10:40,   -2.5,   -1.8,   -0.5,    0.4,    2.8,    5.6,    7.5,    9.0,   10.5,   12.4,   14.1,   15.2,   15.5,   18.4,   19.7,   21.6,   22.6,   23.9,   24.4,   26.0,   26.8,   27.5,   29.0,   30.2,   31.8,   31.7,   31.7,   32.4,   32.3,   33.2,   33.4,  999.0,  999.0,   29.6,   29.2,  999.0,  999.0,  999.0,  999.0,  999.0,  999.0,  999.0,  999.0,  999.0,  999.0,  999.0,  999.0,  999.0,  999.0,  999.0,  999.0,  999.0,  999.0,  999.0,   28.8,  999.0,  999.0,   24.4,   23.9,   23.5,  999.0,  999.0,  999.0
2000/11/02 10:50,   -4.5,   -2.8,   -2.0,    0.7,    2.8,    5.3,    6.6,    8.2,   10.1,   11.0,   12.9,   14.0,   15.4,   17.5,   19.6,   21.3,   22.9,   24.3,   24.5,   25.4,   26.1,   28.5,   29.7,   31.0,   31.6,   31.8,  999.0,   31.6,   32.9,   33.4,  999.0,  999.0,  999.0,  999.0,  999.0,  999.0,  999.0,  999.0,  999.0,  999.0,  999.0,  999.0,  999.0,  999.0,  999.0,  999.0,  999.0,  999.0,  999.0,  999.0,  999.0,  999.0,  999.0,  999.0,  999.0,  999.0,   28.1,   28.5,   27.7,   26.7,  999.0,  999.0,  999.0
2000/11/02 11:00,   -5.1,   -4.1,   -3.0,   -0.1,    2.7,    4.7,    5.9,    7.0,    9.0,   10.9,   12.5,   14.2,   16.0,   18.1,   20.3,   23.4,   24.6,   24.8,   26.3,   27.7,   28.9,   30.2,   31.0,   32.4,   32.9,   33.6,   35.0,   36.2,  999.0,  999.0,  999.0,  999.0,   34.6,  999.0,  999.0,  999.0,  999.0,  999.0,  999.0,  999.0,  999.0,  999.0,  999.0,  999.0,   33.2,  999.0,  999.0,  999.0,  999.0,  999.0,  999.0,  999.0,  999.0,  999.0,  999.0,  999.0,  999.0,  999.0,  999.0,  999.0,  999.0,  999.0,  999.0
2000/11/02 11:10,   -5.0,   -4.2,   -3.3,   -1.1,    1.3,    3.8,    6.5,    8.7,    9.8,   12.2,   14.3,   16.5,   18.3,   21.5,   23.5,   25.0,   25.6,   25.0,   26.1,   28.0,   29.5,   30.5,   30.7,   31.3,   32.4,   34.0,   34.1,   35.3,  999.0,  999.0,  999.0,  999.0,   33.5,  999.0,  999.0,  999.0,  999.0,  999.0,  999.0,   32.7,  999.0,  999.0,  999.0,  999.0,  999.0,  999.0,  999.0,  999.0,  999.0,  999.0,  999.0,  999.0,  999.0,  999.0,  999.0,  999.0,  999.0,  999.0,  999.0,  999.0,  999.0,  999.0,  999.0
2000/11/02 11:20,   -3.1,   -3.7,   -1.0,    0.8,    3.6,    5.6,    7.5,    9.1,   11.9,   13.8,   15.2,   18.1,   21.8,   23.4,   24.5,   27.8,   25.9,   26.0,   27.1,   28.0,  999.0,  999.0,  999.0,   32.8,  999.0,   32.8,   32.6,   33.7,   33.1,   34.7,  999.0,  999.0,   34.6,   34.7,   35.4,   35.0,  999.0,  999.0,  999.0,  999.0,  999.0,  999.0,  999.0,  999.0,  999.0,  999.0,  999.0,  999.0,  999.0,  999.0,  999.0,  999.0,  999.0,  999.0,  999.0,  999.0,  999.0,  999.0,  999.0,  999.0,  999.0,  999.0,  999.0
2000/11/02 11:30,  999.0,  999.0,    0.6,    7.2,    9.6,   10.4,    6.1,   11.7,   13.4,   13.0,   17.1,   19.4,   23.4,   25.2,   25.6,  999.0,   25.7,   27.0,   28.2,   29.9,   31.0,   31.8,   29.5,   30.3,   28.8,   29.4,   29.6,   31.4,   32.4,   33.1,   33.5,   33.3,   34.2,   33.7,   34.5,   32.4,   34.5,   34.0,   34.1,   34.5,  999.0,  999.0,  999.0,  999.0,  999.0,  999.0,  999.0,  999.0,  999.0,  999.0,  999.0,  999.0,  999.0,  999.0,  999.0,  999.0,  999.0,  999.0,  999.0,  999.0,  999.0,  999.0,  999.0
2000/11/02 11:40,  999.0,   -0.3,    2.2,    4.9,    6.9,    9.1,   10.6,   12.7,   14.5,   17.0,   19.0,   21.1,   23.1,   24.4,   25.4,   25.9,   26.6,   27.7,   28.2,   29.1,   29.4,   30.3,   31.1,   31.4,   31.8,   30.4,   30.3,   31.7,   32.3,   32.6,   33.3,   33.7,   33.9,   33.9,   34.0,   33.7,   34.2,   34.9,   35.0,   35.0,   35.4,   35.7,   35.7,   36.8,   36.8,   37.1,   37.3,   37.1,   36.7,   35.2,   33.9,   31.7,   32.7,   30.3,   29.7,   26.5,   27.2,   28.8,  999.0,  999.0,  999.0,  999.0,  999.0
2000/11/02 11:50,   -3.7,   -1.0,    2.5,    5.4,    7.2,    9.6,   11.8,   13.9,   16.2,   18.7,   20.5,   22.9,   25.0,   26.3,   27.9,   29.0,   28.7,   29.0,   31.3,   30.5,   31.9,   34.7,   34.3,   34.3,   34.6,   34.2,   34.5,   34.5,   35.0,   35.6,   34.9,   34.7,   34.1,   34.2,   34.0,   34.7,   34.4,   34.4,   34.3,   34.2,   34.4,   34.5,   34.3,   34.4,   34.5,   34.5,   34.4,   34.1,   34.0,   34.2,   33.5,   33.1,   32.6,   31.9,   31.1,  999.0,  999.0,  999.0,  999.0,  999.0,  999.0,  999.0,  999.0
2000/11/02 12:00,   -4.5,   -1.3,    2.1,    4.3,    6.7,    9.9,   12.2,   14.4,   16.8,   18.0,   18.8,   21.3,   23.2,   24.3,   26.9,   28.0,   29.4,   31.6,   31.4,   32.4,   33.8,   35.5,   36.8,   37.8,   37.0,   37.2,   36.8,   36.9,   37.3,   37.7,   36.6,   35.8,   35.3,   35.7,   35.5,   35.0,   34.6,   32.8,   32.6,   33.3,   33.4,   32.7,   32.0,   32.0,   31.5,   31.3,   31.2,   31.2,   31.5,   31.0,   31.3,   30.8,   29.4,   27.4,  999.0,   29.9,  999.0,  999.0,  999.0,  999.0,  999.0,  999.0,  999.0
2000/11/02 12:10,   -4.2,   -1.8,    1.7,    4.5,    6.6,    8.5,   10.9,   12.5,   14.6,   16.3,   18.3,   20.1,   21.9,   23.8,   25.1,   26.9,   27.1,   27.7,   27.7,   28.3,   29.6,   31.4,   33.5,   33.9,   34.3,   34.0,   34.8,   36.0,   35.6,   35.6,   34.9,   33.3,   33.4,   34.3,   34.3,   33.6,   35.6,   34.0,   34.3,   34.6,   33.5,   31.9,   31.4,   30.6,   28.5,   28.7,   27.5,   27.7,   27.8,   27.4,   27.3,   27.4,   27.2,   28.0,   28.5,   28.4,  999.0,   28.6,  999.0,   27.7,  999.0,  999.0,  999.0
2000/11/02 12:20,   -2.3,   -0.8,    1.5,    4.3,    5.2,    7.6,   10.9,   13.7,   16.0,   17.8,   18.9,   20.7,   22.1,   23.2,   24.9,   27.1,   28.3,   29.9,   31.2,   31.0,   30.6,   30.0,   29.2,   28.9,   29.5,   30.4,   30.4,   31.7,   32.3,   31.9,   31.7,   31.6,   31.0,   32.5,   31.9,   31.5,   31.5,   32.4,   32.9,   32.4,   31.4,   32.4,   32.0,   31.1,   31.5,   29.6,   31.2,   29.9,   29.4,   27.5,   26.8,   27.4,   26.7,   26.3,   26.4,   26.8,   28.0,   27.3,   28.9,   27.8,   27.5,   28.1,   27.8
2000/11/02 12:30,   -3.4,   -1.4,    1.8,    3.5,    5.9,    7.2,   10.8,   13.9,   17.3,   19.6,   22.1,   24.7,   25.9,   27.0,   28.4,   30.3,   31.3,   32.9,   32.8,   32.4,   31.7,   30.6,   29.5,   29.9,   30.2,   31.3,   31.3,   31.9,   32.5,   32.3,   32.3,   32.4,   32.2,   32.2,   32.4,   31.8,   30.7,   30.9,   30.1,   30.8,   29.5,   28.5,   29.0,   28.3,   29.8,   28.8,   28.9,   28.9,   28.9,   28.3,   27.8,   28.4,   28.0,   27.4,   27.4,   27.6,   26.3,   26.6,   26.8,   26.8,   26.9,   27.5,   28.2
2000/11/02 12:40,    4.4,    5.1,    6.0,    9.1,    6.8,    9.2,   11.9,   11.6,   13.6,   15.9,   19.5,   20.1,   22.6,   22.7,   25.8,   29.0,   31.9,   34.3,   35.8,   35.3,   35.5,   35.8,   36.5,   36.7,   35.9,   35.3,   37.4,   37.7,   37.7,   36.8,   37.7,   35.6,   35.2,   35.1,   32.8,   31.9,   31.1,   30.5,   30.2,   29.6,   28.9,   28.6,   28.8,   28.5,   28.2,   28.2,   27.0,   26.8,   25.9,   25.7,   25.2,   25.8,   25.1,   25.7,   25.1,   26.0,   25.8,   26.5,   25.8,   25.1,   25.1,   25.9,   25.0
2000/11/02 12:50,   12.1,   13.7,   14.0,   14.4,   14.2,   13.5,   12.1,   15.2,   14.8,   15.2,   16.2,   18.4,   20.5,   22.8,   25.4,   28.4,   29.5,   31.0,   30.5,   30.0,   30.7,   31.2,   30.9,   31.0,   31.6,   32.5,   34.0,   33.4,   32.8,   34.7,   33.7,   32.3,   31.4,   30.0,   28.6,   27.7,   27.3,   27.3,   26.9,   26.4,   26.9,   27.3,   27.7,   27.4,   28.0,   26.7,   26.1,   25.1,   24.5,   24.4,   24.1,   24.8,   25.4,   23.6,   23.5,   23.4,   23.8,   25.0,   24.3,   24.4,   24.6,   24.6,   24.4
2000/11/02 13:00,    8.7,   11.3,   11.2,   11.0,   10.8,   11.8,   14.1,   15.8,   16.9,   18.9,   20.0,   21.5,   23.2,   25.4,   26.5,   28.1,   29.5,   31.0,   32.7,   33.9,   34.1,   34.2,   34.3,   34.0,   32.7,   31.6,   30.4,   30.6,   29.4,   27.9,   26.5,   27.3,   26.2,   26.8,   27.6,   27.0,   27.6,   28.0,   28.2,   28.4,   27.8,   26.9,   25.0,   24.8,   23.1,   23.7,   22.4,   23.4,   23.7,   23.4,   23.4,   23.1,   22.7,   22.2,   22.1,   23.1,   22.5,   23.1,   23.3,   22.8,   23.1,   23.9,   24.3
2000/11/02 13:10,    7.6,    9.2,    8.8,   10.4,   12.3,   13.3,   14.2,   15.2,   16.7,   18.1,   19.8,   20.8,   22.4,   24.1,   25.4,   26.1,   26.7,   27.6,   28.2,   29.0,   29.8,   31.2,   31.8,   32.6,   32.8,   34.1,   34.4,   33.8,   34.2,   32.7,   33.0,   34.0,   32.6,   30.2,   30.8,   30.3,   28.8,   27.3,   25.5,   23.9,   22.6,   23.9,   22.2,   22.0,   21.4,   21.2,   21.4,   21.8,   22.2,   22.3,   22.8,   22.1,   22.3,   22.8,   22.2,   22.6,   22.0,   22.3,   22.7,   22.9,   23.5,   23.7,   24.4
2000/11/02 13:20,    8.1,    9.7,    8.7,    8.6,   10.6,   11.0,   13.0,   14.3,   15.4,   15.8,   16.9,   18.1,   19.7,   21.2,   22.8,   24.3,   26.8,   28.5,   29.1,   29.7,   30.3,   31.3,   32.1,   31.8,   33.0,   33.9,   35.3,   35.0,   35.0,   35.2,   34.9,   36.1,   36.6,   34.8,   34.4,   33.9,   31.6,   30.3,   29.6,   29.0,   27.5,   26.9,   25.8,   24.8,   23.8,   22.5,   21.9,   21.3,   21.4,   21.5,   21.9,   21.9,   21.9,   22.3,   22.4,   22.6,   22.6,   22.4,   22.5,   23.0,   23.0,   22.7,   22.8
2000/11/02 13:30,    6.3,    8.2,    7.7,    7.1,    9.4,   11.6,   13.0,   14.3,   14.6,   13.6,   13.7,   13.7,   16.1,   19.0,   20.1,   21.3,   22.4,   24.8,   26.2,   27.1,   29.4,   31.8,   33.6,   34.4,   35.0,   35.7,   36.7,   37.0,   37.0,   36.7,   36.4,   36.1,   34.4,   33.9,   32.1,   30.7,   28.9,   28.1,   27.2,   26.2,   25.5,   24.6,   23.7,   23.5,   23.4,   22.9,   22.6,   23.2,   23.5,   23.1,   23.7,   23.5,   23.3,   23.2,   24.0,   23.9,   23.7,   23.1,   22.7,   22.2,   22.3,   22.4,   22.4
2000/11/02 13:40,    4.4,    6.6,    8.2,    8.5,    9.4,   11.2,   12.9,   14.1,   15.9,   16.9,   16.4,   14.4,   13.5,   13.8,   13.6,   17.3,   21.6,   21.0,   20.5,   21.8,   23.8,   30.6,   34.9,   38.1,   36.0,   34.3,   37.3,   40.5,   40.8,   39.0,   39.1,   37.3,   35.8,   36.0,   35.5,   33.5,   32.0,   30.3,   28.9,   28.1,   28.7,   27.9,   28.2,   27.7,   27.9,   26.5,   26.9,   25.5,   25.1,   25.7,   25.2,   24.3,   24.5,   24.5,   24.5,   24.4,   24.9,   24.0,   25.0,   25.3,   24.4,   25.5,   25.0
2000/11/02 13:50,    3.9,    4.6,    6.5,    8.0,    9.1,   10.6,   15.0,   17.6,   14.3,   16.1,   15.0,   14.8,   13.8,   14.1,   15.9,   16.9,   16.9,   16.4,   18.7,   20.1,   22.6,   23.7,   25.4,   25.1,   25.3,   30.9,   30.4,   31.0,   31.8,   33.6,   36.1,   36.3,   37.4,   39.2,   38.5,   38.4,   36.3,   34.7,   33.8,   33.1,   33.4,   31.5,   30.1,   29.2,   29.2,   28.5,   27.8,   27.1,   27.5,   26.2,   26.3,   24.8,   23.5,   23.7,   22.5,   22.2,   21.0,   21.2,   21.3,   21.9,   23.6,   23.5,   23.1
2000/11/02 14:00,    1.6,    3.5,    4.6,    5.5,    8.1,   11.0,   14.8,   16.0,   17.5,   16.4,   13.8,   14.2,   15.1,   16.5,   18.5,   20.6,   21.8,   20.9,   21.4,   21.8,   21.9,   23.4,   22.7,   22.9,   26.5,   29.3,   28.1,   29.9,   30.8,   29.3,   29.8,   32.7,   33.4,   34.2,   36.2,   37.8,   37.4,   37.7,   38.3,   38.1,   36.2,   32.7,   30.1,   27.5,   26.4,   24.8,   24.6,   23.8,   23.8,   23.6,   23.5,   23.7,   24.1,   24.4,   24.3,   23.3,   23.0,   22.2,   22.1,   20.2,   19.3,   19.0,   18.4
2000/11/02 14:10,    2.6,    1.2,   -0.3,    4.3,    6.9,    9.5,   12.7,   14.1,   20.6,   18.3,   16.8,   16.4,   15.7,   16.9,   17.5,   17.0,   21.2,   22.8,   23.0,   24.5,   26.5,   25.8,   27.2,   28.1,   28.9,   29.5,   32.2,   32.0,   32.9,   33.1,   29.1,   30.2,   32.2,   31.9,   35.7,   36.8,   37.2,   36.8,   36.8,   35.5,   35.1,   33.8,   33.5,   33.3,   31.7,   30.0,   28.1,   26.5,   24.8,   23.3,   22.8,   22.9,   22.4,   22.5,   22.5,   21.3,   21.4,   20.9,   19.8,   19.3,   18.8,   18.0,   17.3
2000/11/02 14:20,    1.0,   -0.8,   -0.2,    4.3,    7.4,   11.5,   14.6,   16.7,   19.5,   20.1,   18.7,   17.8,   17.6,   17.9,   20.2,   20.6,   18.5,   19.6,   22.6,   22.0,   23.9,   22.4,   19.3,   25.9,   24.1,   27.6,   27.1,   27.8,   27.9,   27.5,   28.7,   30.7,   30.3,   32.3,   33.9,   34.7,   35.3,   35.5,   36.1,   36.2,   35.8,   34.5,   32.1,   30.1,   28.2,   26.3,   24.5,   24.0,   23.2,   23.0,   23.2,   22.5,   23.3,   22.0,   22.0,   22.4,   22.1,   21.9,   21.7,   21.2,   20.0,   19.3,   19.0
2000/11/02 14:30,   -0.3,   -3.2,   -2.3,    2.6,    8.6,   10.2,   12.8,   14.6,   16.2,   21.4,   23.4,   24.3,   21.5,   22.1,   22.5,   20.2,   21.3,   21.2,   20.6,   21.7,   22.9,   23.3,   24.9,   23.0,   25.1,   24.9,   26.9,   27.1,   29.1,   31.4,   33.8,   33.6,   34.2,   34.6,   34.3,   35.4,   36.1,   35.6,   35.2,   34.9,   33.4,   30.9,   29.1,   28.3,   28.2,   27.4,   26.4,   26.4,   26.0,   26.9,   25.7,   25.2,   26.4,   24.7,   23.0,   22.4,   23.9,  999.0,  999.0,   19.4,   19.8,  999.0,  999.0
2000/11/02 14:40,   -2.3,   -1.5,   -0.8,    2.0,    7.6,    9.8,   12.8,   14.3,   17.4,   20.8,   22.4,   21.8,   19.2,   20.1,   21.7,   23.5,   24.3,   24.9,  999.0,   22.7,   23.0,   23.1,   20.4,   20.6,   22.2,   24.2,   25.9,  999.0,  999.0,  999.0,  999.0,  999.0,  999.0,  999.0,   31.8,   33.0,   34.6,   35.0,   33.8,   33.4,   33.4,   32.9,   32.9,   32.5,   32.9,   33.1,   31.8,   31.8,   31.7,   31.6,   31.1,   30.1,   28.4,   27.3,   26.0,   24.3,   23.5,   23.9,   22.5,   21.6,   21.2,   19.6,   19.4
2000/11/02 14:50,   -2.6,   -0.7,    1.3,    6.2,    8.9,   10.7,   13.3,   16.5,   18.9,   20.8,   20.8,   20.1,   21.4,   22.9,   23.9,   24.2,   24.7,   26.6,   26.8,  999.0,  999.0,  999.0,  999.0,   23.1,   24.2,   25.0,   26.2,  999.0,  999.0,  999.0,  999.0,  999.0,  999.0,  999.0,  999.0,   32.7,   33.1,   33.5,   33.9,   33.5,   32.7,  999.0,  999.0,   31.5,   31.3,  999.0,   31.3,  999.0,   30.8,   29.4,  999.0,   29.1,   29.5,   29.2,   28.8,   27.3,   25.9,   24.4,   23.4,   23.0,   22.1,   22.2,   22.5
2000/11/02 15:00,   -0.7,    0.2,    3.0,    5.9,    8.4,   10.1,   13.1,   16.3,   18.1,   20.0,   20.5,   20.2,   21.2,   22.9,   24.2,   24.9,   26.1,   26.2,   27.3,  999.0,   28.7,  999.0,  999.0,   24.0,   25.3,   26.1,   25.5,  999.0,  999.0,  999.0,  999.0,  999.0,  999.0,  999.0,  999.0,  999.0,  999.0,  999.0,  999.0,  999.0,  999.0,  999.0,  999.0,  999.0,  999.0,  999.0,  999.0,  999.0,  999.0,  999.0,  999.0,  999.0,  999.0,  999.0,  999.0,  999.0,  999.0,  999.0,  999.0,  999.0,  999.0,  999.0,  999.0
2000/11/02 15:10,   -0.1,   -1.3,    3.7,    4.7,    7.2,   10.3,   11.3,   13.9,   17.2,   19.7,   20.5,   20.3,   21.1,   21.4,   22.2,   23.6,   25.3,   25.6,   26.3,   27.1,   28.3,  999.0,  999.0,  999.0,   25.7,   26.3,  999.0,  999.0,  999.0,  999.0,  999.0,  999.0,  999.0,  999.0,  999.0,  999.0,  999.0,  999.0,  999.0,  999.0,  999.0,  999.0,  999.0,  999.0,  999.0,  999.0,  999.0,  999.0,  999.0,  999.0,  999.0,  999.0,  999.0,  999.0,  999.0,  999.0,  999.0,  999.0,  999.0,  999.0,  999.0,  999.0,  999.0
2000/11/02 15:20,    0.7,    3.0,    3.8,    3.8,    5.6,    8.5,   10.8,   14.0,   16.8,   19.5,   20.9,   19.7,   20.1,   20.1,   20.8,   22.6,   24.7,   25.5,   26.3,   26.5,   26.6,   26.8,   26.7,  999.0,   25.3,   26.1,   27.0,  999.0,  999.0,  999.0,  999.0,  999.0,  999.0,  999.0,  999.0,  999.0,  999.0,  999.0,  999.0,  999.0,  999.0,  999.0,  999.0,  999.0,  999.0,  999.0,  999.0,  999.0,  999.0,  999.0,  999.0,  999.0,  999.0,  999.0,  999.0,  999.0,  999.0,  999.0,  999.0,  999.0,  999.0,  999.0,  999.0
2000/11/02 15:30,    0.7,    2.6,    4.3,    3.3,    4.3,    8.0,   11.0,   14.4,   17.7,   19.2,   20.7,   20.5,   18.8,   19.3,   19.3,   21.9,   22.7,   24.8,   25.0,   25.3,  999.0,   25.6,   26.2,   26.3,   25.6,   26.1,   26.7,  999.0,  999.0,  999.0,  999.0,  999.0,  999.0,  999.0,  999.0,  999.0,  999.0,  999.0,  999.0,  999.0,  999.0,  999.0,  999.0,  999.0,  999.0,  999.0,  999.0,  999.0,  999.0,  999.0,  999.0,  999.0,  999.0,  999.0,  999.0,  999.0,  999.0,  999.0,  999.0,  999.0,  999.0,  999.0,  999.0
2000/11/02 15:40,    0.8,    2.1,    3.3,    3.3,    3.1,    6.0,   10.7,   13.9,   17.2,   18.9,   18.6,   19.2,   19.0,   16.7,   17.0,   19.5,   20.3,   20.8,  999.0,   23.0,   25.5,   23.0,  999.0,   25.9,   25.1,   26.2,  999.0,  999.0,  999.0,  999.0,  999.0,  999.0,  999.0,  999.0,  999.0,  999.0,  999.0,  999.0,  999.0,  999.0,  999.0,  999.0,  999.0,  999.0,  999.0,  999.0,  999.0,  999.0,  999.0,  999.0,  999.0,  999.0,  999.0,  999.0,  999.0,  999.0,  999.0,  999.0,  999.0,  999.0,  999.0,  999.0,  999.0
2000/11/02 15:50,    1.4,    2.2,    3.0,    3.5,    3.2,    6.1,    9.6,   12.4,   15.5,   19.1,   19.3,   19.0,   18.7,   18.9,   20.6,   21.7,   22.5,   23.1,   23.4,   23.4,   25.2,  999.0,  999.0,   25.5,   25.3,  999.0,  999.0,  999.0,  999.0,  999.0,  999.0,  999.0,  999.0,  999.0,  999.0,  999.0,  999.0,  999.0,  999.0,  999.0,  999.0,  999.0,  999.0,  999.0,  999.0,  999.0,  999.0,  999.0,  999.0,  999.0,  999.0,  999.0,  999.0,  999.0,  999.0,  999.0,  999.0,  999.0,  999.0,  999.0,  999.0,  999.0,  999.0
2000/11/02 16:00,    0.9,    1.8,    3.2,    3.3,    3.4,    4.9,    7.9,   11.1,   14.0,   17.3,   18.6,   17.9,   17.0,   19.0,   20.6,   21.0,   21.7,   22.4,   21.6,   23.0,   24.5,  999.0,  999.0,  999.0,   24.6,  999.0,  999.0,  999.0,  999.0,  999.0,  999.0,  999.0,  999.0,  999.0,  999.0,  999.0,  999.0,  999.0,  999.0,  999.0,  999.0,  999.0,  999.0,  999.0,  999.0,  999.0,  999.0,  999.0,  999.0,  999.0,  999.0,  999.0,  999.0,  999.0,  999.0,  999.0,  999.0,  999.0,  999.0,  999.0,  999.0,  999.0,  999.0
2000/11/02 16:10,    0.4,    1.4,    2.7,    2.9,    3.5,    6.4,    8.1,   11.2,   14.3,   17.1,   17.5,   16.5,   16.3,   17.4,   18.3,   19.3,   20.6,   21.8,   22.1,   22.6,   23.2,  999.0,   24.3,   24.3,  999.0,  999.0,  999.0,  999.0,  999.0,  999.0,  999.0,  999.0,  999.0,  999.0,  999.0,  999.0,  999.0,  999.0,  999.0,  999.0,  999.0,  999.0,  999.0,  999.0,  999.0,  999.0,  999.0,  999.0,  999.0,  999.0,  999.0,  999.0,  999.0,  999.0,  999.0,  999.0,  999.0,  999.0,  999.0,  999.0,  999.0,  999.0,  999.0
2000/11/02 16:20,    1.5,    2.3,    3.1,    3.8,  999.0,  999.0,  999.0,   11.0,   14.3,   17.0,   17.4,   17.0,   16.4,   18.1,   19.3,   21.1,   21.6,   22.2,   22.5,   23.8,   25.8,  999.0,   24.4,   25.0,  999.0,  999.0,  999.0,  999.0,  999.0,  999.0,  999.0,  999.0,  999.0,  999.0,  999.0,  999.0,  999.0,  999.0,  999.0,  999.0,  999.0,  999.0,  999.0,  999.0,  999.0,  999.0,  999.0,  999.0,  999.0,  999.0,  999.0,  999.0,  999.0,  999.0,  999.0,  999.0,  999.0,  999.0,  999.0,  999.0,  999.0,  999.0,  999.0
2000/11/02 16:30,    1.5,    2.8,    3.3,    3.9,    5.3,    6.7,    8.2,   11.0,   13.0,   15.9,   17.7,   17.0,   15.7,   15.9,   17.3,   18.3,   18.6,   18.7,   21.2,   21.1,   23.1,   25.2,   24.5,  999.0,  999.0,  999.0,  999.0,  999.0,  999.0,  999.0,  999.0,  999.0,  999.0,  999.0,  999.0,  999.0,  999.0,  999.0,  999.0,  999.0,  999.0,  999.0,  999.0,  999.0,  999.0,  999.0,  999.0,  999.0,  999.0,  999.0,  999.0,  999.0,  999.0,  999.0,  999.0,  999.0,  999.0,  999.0,  999.0,  999.0,  999.0,  999.0,  999.0
2000/11/02 16:40,    2.7,    2.8,    2.4,    2.8,    3.1,    5.1,    7.6,    8.5,   10.8,   13.0,   15.7,   17.4,   15.7,   14.9,   15.1,   16.6,   18.0,   18.9,   20.0,   21.0,   20.7,   23.0,   25.5,  999.0,  999.0,  999.0,  999.0,  999.0,  999.0,  999.0,  999.0,  999.0,  999.0,  999.0,  999.0,  999.0,  999.0,  999.0,  999.0,  999.0,  999.0,  999.0,  999.0,  999.0,  999.0,  999.0,  999.0,  999.0,  999.0,  999.0,  999.0,  999.0,  999.0,  999.0,  999.0,  999.0,  999.0,  999.0,  999.0,  999.0,  999.0,  999.0,  999.0
2000/11/02 16:50,  999.0,    2.2,    2.1,    1.7,    2.4,    3.1,    6.8,    8.4,   10.3,   13.1,   16.9,   17.1,   15.4,   16.2,   17.3,   19.1,   19.6,   20.5,   20.9,   21.7,   21.9,   22.4,   26.7,  999.0,  999.0,  999.0,  999.0,  999.0,  999.0,  999.0,  999.0,  999.0,  999.0,  999.0,  999.0,  999.0,  999.0,  999.0,  999.0,  999.0,  999.0,  999.0,  999.0,  999.0,  999.0,  999.0,  999.0,  999.0,  999.0,  999.0,  999.0,  999.0,  999.0,  999.0,  999.0,  999.0,  999.0,  999.0,  999.0,  999.0,  999.0,  999.0,  999.0
2000/11/02 17:00,  999.0,  999.0,    1.0,  999.0,    1.6,    2.7,    7.0,    7.8,   10.6,   14.0,   16.8,   15.7,   16.9,   18.8,   18.6,   17.5,   18.7,   20.1,   21.3,   20.3,   21.5,   23.0,   24.8,  999.0,  999.0,  999.0,  999.0,  999.0,  999.0,  999.0,  999.0,  999.0,  999.0,  999.0,  999.0,  999.0,  999.0,  999.0,  999.0,  999.0,  999.0,  999.0,  999.0,  999.0,  999.0,  999.0,  999.0,  999.0,  999.0,  999.0,  999.0,  999.0,  999.0,  999.0,  999.0,  999.0,  999.0,  999.0,  999.0,  999.0,  999.0,  999.0,  999.0
2000/11/02 17:10,    1.4,    2.4,    1.9,    0.2,    2.1,    2.5,    5.0,    7.0,  999.0,  999.0,  999.0,   15.9,   16.9,  999.0,  999.0,   17.6,  999.0,   20.5,   21.7,   22.4,   22.6,   22.8,  999.0,  999.0,  999.0,  999.0,  999.0,  999.0,  999.0,  999.0,  999.0,  999.0,  999.0,  999.0,  999.0,  999.0,  999.0,  999.0,  999.0,  999.0,  999.0,  999.0,  999.0,  999.0,  999.0,  999.0,  999.0,  999.0,  999.0,  999.0,  999.0,  999.0,  999.0,  999.0,  999.0,  999.0,  999.0,  999.0,  999.0,  999.0,  999.0,  999.0,  999.0
2000/11/02 17:20,    2.9,  999.0,  999.0,    1.9,    2.2,    3.0,    5.0,    6.6,  999.0,   14.7,   15.2,   16.2,   17.4,  999.0,  999.0,  999.0,  999.0,   21.0,   21.9,   22.2,   21.0,   21.7,   23.2,  999.0,  999.0,  999.0,  999.0,  999.0,  999.0,  999.0,  999.0,  999.0,  999.0,  999.0,  999.0,  999.0,  999.0,  999.0,  999.0,  999.0,  999.0,  999.0,  999.0,  999.0,  999.0,  999.0,  999.0,  999.0,  999.0,  999.0,  999.0,  999.0,  999.0,  999.0,  999.0,  999.0,  999.0,  999.0,  999.0,  999.0,  999.0,  999.0,  999.0
2000/11/02 17:30,    3.0,    3.1,    1.8,    0.1,   -0.1,    2.1,    4.9,    7.2,  999.0,   14.5,   16.0,   15.4,  999.0,  999.0,  999.0,  999.0,   20.2,   21.2,   22.2,   22.0,   22.2,   22.6,   23.4,  999.0,  999.0,  999.0,  999.0,  999.0,  999.0,  999.0,  999.0,  999.0,  999.0,  999.0,  999.0,  999.0,  999.0,  999.0,  999.0,  999.0,  999.0,  999.0,  999.0,  999.0,  999.0,  999.0,  999.0,  999.0,  999.0,  999.0,  999.0,  999.0,  999.0,  999.0,  999.0,  999.0,  999.0,  999.0,  999.0,  999.0,  999.0,  999.0,  999.0
2000/11/02 17:40,    0.7,    3.7,    2.5,    0.3,    0.3,    1.8,    4.8,    6.3,  999.0,   13.7,   15.0,  999.0,  999.0,  999.0,  999.0,   17.8,   18.6,   20.6,   20.7,   21.6,   22.2,   23.6,  999.0,  999.0,  999.0,  999.0,  999.0,  999.0,  999.0,  999.0,  999.0,  999.0,  999.0,  999.0,  999.0,  999.0,  999.0,  999.0,  999.0,  999.0,  999.0,  999.0,  999.0,  999.0,  999.0,  999.0,  999.0,  999.0,  999.0,  999.0,  999.0,  999.0,  999.0,  999.0,  999.0,  999.0,  999.0,  999.0,  999.0,  999.0,  999.0,  999.0,  999.0
2000/11/02 17:50,    0.0,    4.9,    3.9,    2.0,    1.9,    3.4,    5.2,    6.3,   10.3,   14.4,   14.1,   12.9,   14.0,   15.9,   16.3,   17.4,   18.8,   19.5,   19.9,  999.0,   21.3,   23.6,  999.0,  999.0,  999.0,  999.0,  999.0,  999.0,  999.0,  999.0,  999.0,  999.0,  999.0,  999.0,  999.0,  999.0,  999.0,  999.0,  999.0,  999.0,  999.0,  999.0,  999.0,  999.0,  999.0,  999.0,  999.0,  999.0,  999.0,  999.0,  999.0,  999.0,  999.0,  999.0,  999.0,  999.0,  999.0,  999.0,  999.0,  999.0,  999.0,  999.0,  999.0
2000/11/02 18:00,  999.0,    4.8,    3.0,    1.3,    1.4,    3.2,  999.0,  999.0,  999.0,  999.0,   14.7,  999.0,  999.0,   14.7,   15.6,  999.0,   19.4,   20.1,   20.4,   19.3,   20.8,   23.3,   24.0,  999.0,  999.0,  999.0,  999.0,  999.0,  999.0,  999.0,  999.0,  999.0,  999.0,  999.0,  999.0,  999.0,  999.0,  999.0,  999.0,  999.0,  999.0,  999.0,  999.0,  999.0,  999.0,  999.0,  999.0,  999.0,  999.0,  999.0,  999.0,  999.0,  999.0,  999.0,  999.0,  999.0,  999.0,  999.0,  999.0,  999.0,  999.0,  999.0,  999.0
2000/11/02 18:10,    2.2,    5.1,    0.3,    1.2,    1.7,    2.6,    6.3,  999.0,  999.0,  999.0,   13.8,   12.7,  999.0,  999.0,   15.2,  999.0,   19.2,   19.9,   20.4,   20.4,   21.7,   23.6,  999.0,  999.0,  999.0,   23.7,  999.0,  999.0,  999.0,  999.0,  999.0,  999.0,  999.0,  999.0,  999.0,  999.0,  999.0,  999.0,  999.0,  999.0,  999.0,  999.0,  999.0,  999.0,  999.0,  999.0,  999.0,  999.0,  999.0,  999.0,  999.0,  999.0,  999.0,  999.0,  999.0,  999.0,  999.0,  999.0,  999.0,  999.0,  999.0,  999.0,  999.0
2000/11/02 18:20,    0.8,    4.0,    2.2,  999.0,    0.9,    2.8,    6.1,  999.0,  999.0,  999.0,  999.0,   13.8,   13.6,   13.2,   15.4,   16.7,   18.5,   19.1,   19.4,   19.9,   21.5,   23.3,  999.0,  999.0,  999.0,  999.0,  999.0,  999.0,  999.0,  999.0,  999.0,  999.0,  999.0,  999.0,  999.0,  999.0,  999.0,  999.0,  999.0,  999.0,  999.0,  999.0,  999.0,  999.0,  999.0,  999.0,  999.0,  999.0,  999.0,  999.0,  999.0,  999.0,  999.0,  999.0,  999.0,  999.0,  999.0,  999.0,  999.0,  999.0,  999.0,  999.0,  999.0
2000/11/02 18:30,    0.8,    4.8,    2.8,  999.0,    0.8,    1.9,  999.0,  999.0,  999.0,  999.0,  999.0,   14.6,   13.3,   13.1,   15.2,   16.1,   17.3,  999.0,  999.0,   19.4,   21.8,  999.0,  999.0,  999.0,  999.0,  999.0,  999.0,  999.0,  999.0,  999.0,  999.0,  999.0,  999.0,  999.0,  999.0,  999.0,  999.0,  999.0,  999.0,  999.0,  999.0,  999.0,  999.0,  999.0,  999.0,  999.0,  999.0,  999.0,  999.0,  999.0,  999.0,  999.0,  999.0,  999.0,  999.0,  999.0,  999.0,  999.0,  999.0,  999.0,  999.0,  999.0,  999.0
2000/11/02 18:40,    1.2,    4.8,    2.4,   -0.6,   -0.4,    1.6,    4.1,    6.0,  999.0,  999.0,  999.0,   13.8,   13.5,   13.0,  999.0,   16.6,  999.0,  999.0,   19.2,   21.8,  999.0,  999.0,  999.0,  999.0,  999.0,  999.0,  999.0,  999.0,  999.0,  999.0,  999.0,  999.0,  999.0,  999.0,  999.0,  999.0,  999.0,  999.0,  999.0,  999.0,  999.0,  999.0,  999.0,  999.0,  999.0,  999.0,  999.0,  999.0,  999.0,  999.0,  999.0,  999.0,  999.0,  999.0,  999.0,  999.0,  999.0,  999.0,  999.0,  999.0,  999.0,  999.0,  999.0
2000/11/02 18:50,    2.6,    3.6,    1.6,    0.7,   -0.3,    1.5,    2.7,    4.9,  999.0,  999.0,  999.0,   14.4,   13.7,   12.8,   14.2,  999.0,   17.4,   18.0,   19.7,   21.9,  999.0,  999.0,  999.0,  999.0,  999.0,  999.0,  999.0,  999.0,  999.0,  999.0,  999.0,  999.0,  999.0,  999.0,  999.0,  999.0,  999.0,  999.0,  999.0,  999.0,  999.0,  999.0,  999.0,  999.0,  999.0,  999.0,  999.0,  999.0,  999.0,  999.0,  999.0,  999.0,  999.0,  999.0,  999.0,  999.0,  999.0,  999.0,  999.0,  999.0,  999.0,  999.0,  999.0
2000/11/02 19:00,    2.2,    4.4,    1.5,   -1.3,    0.1,    0.2,    3.3,    5.5,    5.7,  999.0,   13.9,   15.1,   14.2,   13.1,   13.8,  999.0,   16.5,   17.4,   19.6,   21.6,  999.0,  999.0,  999.0,  999.0,  999.0,  999.0,  999.0,  999.0,  999.0,  999.0,  999.0,  999.0,  999.0,  999.0,  999.0,  999.0,  999.0,  999.0,  999.0,  999.0,  999.0,  999.0,  999.0,  999.0,  999.0,  999.0,  999.0,  999.0,  999.0,  999.0,  999.0,  999.0,  999.0,  999.0,  999.0,  999.0,  999.0,  999.0,  999.0,  999.0,  999.0,  999.0,  999.0
2000/11/02 19:10,    2.5,    2.8,    0.3,    3.3,    1.4,  999.0,    2.2,    5.0,    6.4,  999.0,   13.7,   15.3,   13.6,   12.6,   14.2,   15.3,   16.6,   18.5,   19.7,   20.7,  999.0,  999.0,  999.0,  999.0,  999.0,  999.0,  999.0,  999.0,  999.0,  999.0,  999.0,  999.0,  999.0,  999.0,  999.0,  999.0,  999.0,  999.0,  999.0,  999.0,  999.0,  999.0,  999.0,  999.0,  999.0,  999.0,  999.0,  999.0,  999.0,  999.0,  999.0,  999.0,  999.0,  999.0,  999.0,  999.0,  999.0,  999.0,  999.0,  999.0,  999.0,  999.0,  999.0
2000/11/02 19:20,    3.1,    1.1,    0.4,    0.6,    1.8,  999.0,    3.1,    5.1,  999.0,  999.0,   14.4,   14.8,   15.0,   12.3,   13.9,   15.5,   16.2,   17.8,   19.0,   20.7,  999.0,  999.0,  999.0,  999.0,  999.0,  999.0,  999.0,  999.0,  999.0,  999.0,  999.0,  999.0,  999.0,  999.0,  999.0,  999.0,  999.0,  999.0,  999.0,  999.0,  999.0,  999.0,  999.0,  999.0,  999.0,  999.0,  999.0,  999.0,  999.0,  999.0,  999.0,  999.0,  999.0,  999.0,  999.0,  999.0,  999.0,  999.0,  999.0,  999.0,  999.0,  999.0,  999.0
2000/11/02 19:30,    2.1,    0.2,   -0.7,   -0.1,    0.3,  999.0,  999.0,    5.3,    6.5,  999.0,   13.4,   13.9,   14.1,   12.9,   14.4,   15.6,   16.5,  999.0,   18.9,   20.0,   21.4,  999.0,  999.0,  999.0,  999.0,  999.0,  999.0,  999.0,  999.0,  999.0,  999.0,  999.0,  999.0,  999.0,  999.0,  999.0,  999.0,  999.0,  999.0,  999.0,  999.0,  999.0,  999.0,  999.0,  999.0,  999.0,  999.0,  999.0,  999.0,  999.0,  999.0,  999.0,  999.0,  999.0,  999.0,  999.0,  999.0,  999.0,  999.0,  999.0,  999.0,  999.0,  999.0
2000/11/02 19:40,    1.4,    0.3,   -1.2,   -2.1,   -0.3,  999.0,    2.3,    5.7,    6.4,  999.0,   13.3,   13.9,   15.1,   14.3,  999.0,   16.0,   16.3,   16.4,  999.0,   19.3,  999.0,  999.0,  999.0,  999.0,  999.0,  999.0,  999.0,  999.0,  999.0,  999.0,  999.0,  999.0,  999.0,  999.0,  999.0,  999.0,  999.0,  999.0,  999.0,  999.0,  999.0,  999.0,  999.0,  999.0,  999.0,  999.0,  999.0,  999.0,  999.0,  999.0,  999.0,  999.0,  999.0,  999.0,  999.0,  999.0,  999.0,  999.0,  999.0,  999.0,  999.0,  999.0,  999.0
2000/11/02 19:50,    1.0,    0.7,   -1.5,   -3.0,  999.0,  999.0,  999.0,    6.3,    7.2,  999.0,   12.8,   13.8,   14.4,   12.1,   13.6,   14.7,   16.2,   17.0,   18.0,   19.9,  999.0,  999.0,  999.0,  999.0,  999.0,  999.0,  999.0,  999.0,  999.0,  999.0,  999.0,  999.0,  999.0,  999.0,  999.0,  999.0,  999.0,  999.0,  999.0,  999.0,  999.0,  999.0,  999.0,  999.0,  999.0,  999.0,  999.0,  999.0,  999.0,   30.6,  999.0,  999.0,  999.0,  999.0,  999.0,  999.0,  999.0,  999.0,  999.0,  999.0,  999.0,  999.0,  999.0
2000/11/02 20:00,    1.2,    1.5,   -0.9,   -0.7,   -0.2,   -1.1,    3.1,    5.1,    7.3,  999.0,   12.4,   14.3,   14.1,   12.1,   12.8,   15.1,   16.1,   16.6,   18.2,   20.1,  999.0,  999.0,  999.0,  999.0,   26.1,  999.0,  999.0,  999.0,  999.0,  999.0,  999.0,  999.0,  999.0,  999.0,  999.0,  999.0,  999.0,  999.0,   26.2,   27.7,  999.0,  999.0,  999.0,  999.0,   33.5,   32.0,   34.2,   32.8,   33.4,  999.0,  999.0,  999.0,  999.0,  999.0,  999.0,  999.0,  999.0,  999.0,  999.0,  999.0,  999.0,  999.0,  999.0
2000/11/02 20:10,    0.7,    3.8,    0.2,    0.6,    1.6,    1.7,    2.1,    4.8,  999.0,  999.0,   11.7,   13.1,   14.6,   12.8,   12.1,   14.4,   16.2,   16.9,   17.8,   19.3,  999.0,  999.0,  999.0,  999.0,  999.0,  999.0,   26.2,  999.0,  999.0,  999.0,  999.0,  999.0,  999.0,   26.2,  999.0,  999.0,  999.0,  999.0,  999.0,  999.0,  999.0,  999.0,  999.0,  999.0,  999.0,  999.0,  999.0,  999.0,  999.0,  999.0,  999.0,  999.0,  999.0,  999.0,  999.0,  999.0,  999.0,  999.0,  999.0,  999.0,  999.0,  999.0,  999.0
2000/11/02 20:20,    0.1,    0.6,    1.1,    2.4,    3.1,    1.9,    1.6,    4.6,    6.4,    6.4,   11.5,   13.7,   15.3,   13.9,   11.8,   14.0,   15.7,   16.2,   17.2,   18.3,  999.0,  999.0,  999.0,   25.4,  999.0,  999.0,  999.0,   26.4,  999.0,  999.0,  999.0,  999.0,  999.0,  999.0,  999.0,  999.0,  999.0,  999.0,  999.0,  999.0,  999.0,  999.0,  999.0,  999.0,  999.0,  999.0,  999.0,  999.0,  999.0,  999.0,  999.0,  999.0,  999.0,  999.0,  999.0,  999.0,  999.0,  999.0,  999.0,  999.0,  999.0,  999.0,  999.0
2000/11/02 20:30,    0.1,  999.0,    0.2,    2.1,    2.7,    1.9,    1.8,    4.0,  999.0,  999.0,  999.0,   12.3,   13.5,   13.6,   12.8,   13.9,   15.3,   16.2,  999.0,   18.5,  999.0,  999.0,   24.1,   26.0,  999.0,  999.0,  999.0,  999.0,  999.0,   29.1,  999.0,  999.0,  999.0,  999.0,  999.0,  999.0,  999.0,  999.0,  999.0,  999.0,  999.0,  999.0,  999.0,  999.0,  999.0,  999.0,  999.0,  999.0,  999.0,  999.0,  999.0,  999.0,  999.0,  999.0,  999.0,  999.0,  999.0,  999.0,  999.0,  999.0,  999.0,  999.0,  999.0
2000/11/02 20:40,   -0.1,    0.2,    1.2,    3.4,    2.7,    2.3,    1.7,    2.9,  999.0,    7.3,    9.0,   10.5,   13.9,   13.5,   13.2,   14.3,   15.2,   16.0,  999.0,  999.0,  999.0,  999.0,   24.6,   26.5,  999.0,  999.0,  999.0,  999.0,  999.0,  999.0,  999.0,  999.0,  999.0,  999.0,  999.0,  999.0,  999.0,  999.0,  999.0,  999.0,  999.0,  999.0,  999.0,  999.0,  999.0,  999.0,  999.0,  999.0,  999.0,  999.0,  999.0,  999.0,  999.0,  999.0,  999.0,  999.0,  999.0,  999.0,  999.0,  999.0,  999.0,  999.0,  999.0
2000/11/02 20:50,    1.0,   -0.3,    1.4,    1.8,    3.6,  999.0,    2.3,    3.5,    5.4,    6.6,    9.8,   11.9,   12.9,   13.6,   12.3,  999.0,  999.0,  999.0,  999.0,   19.2,  999.0,  999.0,  999.0,   27.7,   27.9,  999.0,  999.0,  999.0,  999.0,   25.6,  999.0,  999.0,  999.0,  999.0,  999.0,  999.0,  999.0,  999.0,  999.0,  999.0,  999.0,  999.0,  999.0,  999.0,  999.0,  999.0,  999.0,  999.0,  999.0,  999.0,  999.0,  999.0,  999.0,  999.0,  999.0,  999.0,  999.0,  999.0,  999.0,  999.0,  999.0,  999.0,  999.0
2000/11/02 21:00,    1.8,    2.4,    2.0,    3.1,    2.2,    0.3,    2.5,    3.7,    5.0,    6.7,   10.0,   12.5,   14.7,   14.4,  999.0,  999.0,   17.2,   18.0,  999.0,   19.7,   22.0,  999.0,  999.0,  999.0,  999.0,  999.0,  999.0,  999.0,  999.0,  999.0,   26.8,  999.0,   26.1,  999.0,   28.5,  999.0,  999.0,  999.0,  999.0,  999.0,  999.0,  999.0,  999.0,  999.0,  999.0,  999.0,  999.0,  999.0,  999.0,  999.0,  999.0,  999.0,  999.0,  999.0,  999.0,  999.0,  999.0,  999.0,  999.0,  999.0,  999.0,  999.0,  999.0
2000/11/02 21:10,    0.9,    0.8,    2.4,  999.0,    2.0,    2.1,  999.0,    3.6,  999.0,    7.7,   11.9,   13.0,   15.0,   13.6,   14.9,   16.5,   16.7,   16.8,   10.4,   22.3,   23.3,  999.0,  999.0,  999.0,  999.0,  999.0,  999.0,  999.0,  999.0,  999.0,  999.0,  999.0,  999.0,   25.6,  999.0,  999.0,  999.0,  999.0,  999.0,  999.0,  999.0,  999.0,  999.0,  999.0,  999.0,  999.0,  999.0,  999.0,  999.0,  999.0,  999.0,  999.0,  999.0,  999.0,  999.0,  999.0,  999.0,  999.0,  999.0,  999.0,  999.0,  999.0,  999.0
2000/11/02 21:20,    2.0,    3.3,  999.0,    3.3,    3.9,    1.4,  999.0,  999.0,  999.0,  999.0,  999.0,   14.5,   15.6,  999.0,  999.0,  999.0,   16.4,  999.0,   17.2,   20.0,   22.3,  999.0,  999.0,  999.0,  999.0,  999.0,  999.0,  999.0,  999.0,  999.0,   26.2,   28.1,   27.2,   28.0,   27.0,   27.3,  999.0,  999.0,  999.0,  999.0,  999.0,  999.0,  999.0,  999.0,  999.0,  999.0,  999.0,  999.0,  999.0,  999.0,  999.0,  999.0,  999.0,  999.0,  999.0,  999.0,  999.0,  999.0,  999.0,  999.0,  999.0,  999.0,  999.0
2000/11/02 21:30,    1.3,    2.6,    2.6,    3.4,    3.3,    1.7,    1.1,  999.0,    4.9,  999.0,  999.0,   14.3,   15.8,   15.8,   15.1,   16.5,   17.9,   19.0,   19.4,   21.4,   23.7,  999.0,  999.0,  999.0,  999.0,  999.0,  999.0,  999.0,  999.0,  999.0,  999.0,  999.0,  999.0,  999.0,  999.0,  999.0,  999.0,  999.0,  999.0,  999.0,  999.0,  999.0,  999.0,  999.0,  999.0,  999.0,  999.0,  999.0,  999.0,  999.0,  999.0,  999.0,  999.0,  999.0,  999.0,  999.0,  999.0,  999.0,  999.0,  999.0,  999.0,  999.0,  999.0
2000/11/02 21:40,    1.3,    2.8,    2.4,    3.1,    3.5,    3.3,    2.8,    3.5,    5.7,  999.0,  999.0,  999.0,  999.0,  999.0,   15.0,   15.5,   17.1,   18.3,   19.3,   21.4,   24.5,  999.0,  999.0,  999.0,  999.0,  999.0,  999.0,  999.0,  999.0,  999.0,  999.0,  999.0,   26.6,   25.5,   23.9,   23.6,   23.5,   25.6,   25.5,   25.8,  999.0,   27.0,   26.2,   27.4,  999.0,  999.0,   28.7,   30.6,   31.7,   34.3,  999.0,  999.0,  999.0,  999.0,  999.0,  999.0,  999.0,  999.0,  999.0,  999.0,  999.0,  999.0,  999.0
2000/11/02 21:50,    0.7,    2.2,    4.4,    3.4,    2.1,    1.9,    1.6,    3.6,    4.7,    5.8,  999.0,  999.0,   14.5,   15.0,   15.0,   16.0,   17.3,   18.5,   19.0,   21.1,   23.7,   25.0,  999.0,  999.0,  999.0,   26.2,   26.3,   26.2,   25.9,   25.2,   25.2,   26.3,   25.6,   25.2,   24.7,   25.0,   26.0,   27.7,   28.4,   29.4,   29.3,   29.2,   29.2,   29.3,   29.7,   30.1,   30.9,   31.6,   32.9,   34.0,   34.6,   34.9,   35.1,   33.8,  999.0,  999.0,  999.0,  999.0,  999.0,  999.0,  999.0,  999.0,  999.0
2000/11/02 22:00,    0.9,    6.5,    3.9,    6.4,    6.9,  999.0,   -0.3,   -2.6,    4.4,    6.6,   10.9,  999.0,   15.1,   14.3,   14.5,   19.1,   21.4,   20.7,   21.4,   23.9,   24.0,   25.1,   24.3,   26.9,   25.8,   22.5,   21.8,   22.9,   24.2,   27.2,   28.1,   26.6,   28.3,   28.5,   29.8,   31.4,   32.5,  999.0,   34.2,   34.8,   35.1,  999.0,   34.7,  999.0,  999.0,  999.0,  999.0,  999.0,  999.0,  999.0,  999.0,  999.0,  999.0,  999.0,  999.0,  999.0,  999.0,  999.0,  999.0,  999.0,  999.0,  999.0,  999.0
2000/11/02 22:10,   -0.5,   -0.3,    2.7,    0.3,    1.8,    1.6,    2.6,    4.9,    5.6,    6.9,   10.3,   10.2,   11.2,   13.0,   13.6,   17.0,   19.3,   20.7,   23.4,   24.6,   24.4,   25.8,   24.8,   26.0,   26.1,   28.8,   26.3,   29.1,   28.9,   29.4,   28.8,   28.8,   29.7,  999.0,  999.0,  999.0,  999.0,  999.0,  999.0,  999.0,  999.0,  999.0,  999.0,  999.0,  999.0,  999.0,  999.0,  999.0,  999.0,  999.0,  999.0,  999.0,  999.0,  999.0,  999.0,  999.0,  999.0,  999.0,  999.0,  999.0,  999.0,  999.0,  999.0
2000/11/02 22:20,    0.1,    1.3,    2.9,    2.1,    2.5,    2.9,    4.4,    5.5,  999.0,    6.3,  999.0,  999.0,   13.4,   13.1,  999.0,   12.7,   16.2,   18.7,   19.7,   20.7,   21.6,   21.8,   23.2,   24.2,   25.5,   25.4,   27.1,  999.0,  999.0,  999.0,  999.0,  999.0,  999.0,  999.0,  999.0,  999.0,  999.0,  999.0,  999.0,  999.0,  999.0,  999.0,  999.0,  999.0,  999.0,  999.0,  999.0,  999.0,  999.0,  999.0,  999.0,  999.0,  999.0,  999.0,  999.0,  999.0,  999.0,  999.0,  999.0,  999.0,  999.0,  999.0,  999.0
2000/11/02 22:30,    0.2,    0.7,    1.3,    0.6,    0.8,    0.1,    2.8,    5.9,    5.5,    6.8,   10.3,  999.0,   13.9,   13.7,   14.1,   15.6,   17.1,   20.0,   22.1,  999.0,   20.7,   21.6,   22.6,   24.3,   24.0,   24.7,  999.0,  999.0,  999.0,  999.0,  999.0,  999.0,  999.0,  999.0,  999.0,  999.0,  999.0,  999.0,  999.0,  999.0,  999.0,  999.0,  999.0,  999.0,  999.0,  999.0,  999.0,  999.0,  999.0,  999.0,  999.0,  999.0,  999.0,  999.0,  999.0,  999.0,  999.0,  999.0,  999.0,  999.0,  999.0,  999.0,  999.0
2000/11/02 22:40,   -8.6,   -0.6,   -3.5,   -1.0,    2.1,   -3.7,    2.5,    9.3,    5.7,   10.4,  999.0,    9.4,  999.0,   14.5,   14.3,   15.7,   17.5,   19.7,   21.7,   21.5,   21.6,   22.7,   23.2,   24.1,   21.9,   21.3,  999.0,  999.0,  999.0,  999.0,  999.0,  999.0,  999.0,  999.0,  999.0,  999.0,  999.0,  999.0,  999.0,  999.0,  999.0,   32.8,  999.0,   31.0,   33.0,  999.0,  999.0,  999.0,  999.0,  999.0,  999.0,  999.0,  999.0,  999.0,  999.0,  999.0,  999.0,  999.0,  999.0,  999.0,  999.0,  999.0,  999.0
2000/11/02 22:50,    0.5,    0.8,    1.8,    2.2,    0.5,    0.7,    0.7,    2.6,  999.0,    6.9,    9.6,   10.8,   13.1,   14.5,   15.3,   16.6,   18.6,   21.7,   22.7,  999.0,   23.0,   23.4,   23.8,   24.7,   24.2,  999.0,   25.3,  999.0,  999.0,  999.0,  999.0,  999.0,  999.0,  999.0,  999.0,  999.0,  999.0,  999.0,  999.0,  999.0,  999.0,  999.0,  999.0,  999.0,  999.0,  999.0,  999.0,  999.0,  999.0,  999.0,  999.0,  999.0,  999.0,  999.0,  999.0,  999.0,  999.0,  999.0,  999.0,  999.0,  999.0,  999.0,  999.0
2000/11/02 23:00,    0.4,    0.9,   -1.1,   -1.2,    1.8,    0.3,    0.8,    2.8,    5.2,    6.9,  999.0,   10.5,   12.4,   14.5,   15.8,   16.9,   17.7,   21.7,   21.9,   21.8,   22.8,   23.4,   24.2,   24.8,  999.0,  999.0,  999.0,  999.0,  999.0,  999.0,  999.0,  999.0,  999.0,  999.0,  999.0,  999.0,  999.0,  999.0,  999.0,  999.0,  999.0,  999.0,  999.0,  999.0,   33.6,  999.0,  999.0,  999.0,  999.0,  999.0,  999.0,  999.0,  999.0,  999.0,  999.0,  999.0,  999.0,  999.0,  999.0,  999.0,  999.0,  999.0,  999.0
2000/11/02 23:10,    0.4,    0.3,    1.2,    1.5,    1.6,   -0.9,    0.7,    2.5,    4.7,    7.2,  999.0,    9.7,   11.5,   13.7,   15.5,   16.5,   16.9,   19.1,   21.6,   22.7,   23.1,  999.0,  999.0,  999.0,  999.0,  999.0,  999.0,  999.0,  999.0,  999.0,  999.0,  999.0,  999.0,  999.0,  999.0,  999.0,  999.0,  999.0,  999.0,  999.0,  999.0,  999.0,  999.0,   31.9,  999.0,  999.0,  999.0,  999.0,  999.0,   33.8,  999.0,  999.0,  999.0,  999.0,  999.0,  999.0,  999.0,  999.0,  999.0,  999.0,  999.0,  999.0,  999.0
2000/11/02 23:20,    0.7,    0.1,   -0.2,  999.0,    0.8,    0.1,    0.8,  999.0,    4.6,    7.6,  999.0,  999.0,   11.6,  999.0,   16.1,   16.8,   17.8,   19.2,   22.3,   22.4,   24.0,  999.0,   26.8,   26.0,   25.4,   24.8,   24.4,   24.7,  999.0,   24.4,  999.0,  999.0,  999.0,  999.0,  999.0,  999.0,  999.0,  999.0,  999.0,  999.0,  999.0,  999.0,  999.0,  999.0,  999.0,  999.0,  999.0,  999.0,  999.0,  999.0,  999.0,  999.0,  999.0,  999.0,  999.0,  999.0,  999.0,  999.0,  999.0,  999.0,  999.0,  999.0,  999.0
2000/11/02 23:30,    0.3,    0.6,    0.7,  999.0,    0.9,   -1.3,    0.7,    2.4,    4.9,    7.9,   10.3,  999.0,   11.8,   14.2,   15.9,   17.4,   18.2,   20.6,  999.0,  999.0,  999.0,  999.0,  999.0,   24.2,   24.3,   24.9,   25.1,   24.8,  999.0,  999.0,  999.0,  999.0,  999.0,  999.0,  999.0,  999.0,  999.0,  999.0,  999.0,  999.0,  999.0,  999.0,  999.0,  999.0,  999.0,  999.0,  999.0,  999.0,  999.0,  999.0,  999.0,  999.0,  999.0,  999.0,  999.0,  999.0,  999.0,  999.0,  999.0,  999.0,  999.0,  999.0,  999.0
2000/11/02 23:40,   -0.7,   -0.0,   -0.1,    1.2,    0.2,   -1.4,    0.0,    1.8,    4.7,    7.7,    9.5,    9.9,   10.8,   13.8,   15.3,   17.0,   18.7,   20.8,  999.0,  999.0,  999.0,  999.0,  999.0,  999.0,   25.0,   27.3,   26.9,  999.0,   26.7,   28.1,  999.0,  999.0,  999.0,  999.0,  999.0,  999.0,  999.0,  999.0,  999.0,  999.0,  999.0,  999.0,  999.0,  999.0,  999.0,  999.0,  999.0,  999.0,  999.0,  999.0,  999.0,  999.0,  999.0,  999.0,  999.0,  999.0,  999.0,  999.0,  999.0,  999.0,  999.0,  999.0,  999.0
2000/11/02 23:50,    0.1,   -0.2,    0.3,    1.4,    0.7,   -0.2,   -0.5,    1.9,    4.7,    8.0,  999.0,    9.4,   12.9,   14.6,   16.4,   17.3,   18.3,   20.4,   22.7,  999.0,  999.0,  999.0,  999.0,  999.0,  999.0,  999.0,  999.0,  999.0,  999.0,  999.0,  999.0,  999.0,  999.0,  999.0,  999.0,  999.0,  999.0,  999.0,  999.0,  999.0,  999.0,  999.0,  999.0,  999.0,  999.0,  999.0,  999.0,  999.0,  999.0,  999.0,  999.0,  999.0,  999.0,  999.0,  999.0,  999.0,  999.0,  999.0,  999.0,  999.0,  999.0,  999.0,  999.0
